| time (UTC) | temp C | wind direction | speed KPH | gust KPH | rain 1hr cm | rain 24hr cm | rain mn cm | humidity % | barometer mb |
| 20260503010517 | 16 | 225 | 4.8 | 9.7 | 0.00 | 0.00 | 0.00 | 38 | 1010.0 |
| 20260503010403 | 16 | 222 | 4.8 | 9.7 | 0.00 | 0.00 | 0.00 | 38 | 1010.0 |
| 20260503010304 | 16 | 221 | 4.8 | 9.7 | 0.00 | 0.00 | 0.00 | 39 | 1010.0 |
| 20260503010203 | 16 | 222 | 4.8 | 9.7 | 0.00 | 0.00 | 0.00 | 39 | 1010.1 |
| 20260503010104 | 16 | 221 | 4.8 | 9.7 | 0.00 | 0.00 | 0.00 | 38 | 1010.0 |
| 20260503010004 | 16 | 222 | 4.8 | 9.7 | 0.00 | 0.00 | 0.00 | 38 | 1010.1 |
| 20260503005918 | 16 | 225 | 4.8 | 12.9 | 0.00 | 0.00 | 0.00 | 39 | 1010.1 |
| 20260503005803 | 16 | 226 | 4.8 | 12.9 | 0.00 | 0.00 | 0.00 | 39 | 1010.0 |
| 20260503005703 | 16 | 228 | 4.8 | 12.9 | 0.00 | 0.00 | 0.00 | 39 | 1010.1 |
| 20260503005618 | 16 | 229 | 4.8 | 12.9 | 0.00 | 0.00 | 0.00 | 38 | 1010.2 |
| 20260503005504 | 16 | 226 | 4.8 | 12.9 | 0.00 | 0.00 | 0.00 | 38 | 1010.1 |
| 20260503005404 | 16 | 230 | 4.8 | 12.9 | 0.00 | 0.00 | 0.00 | 38 | 1010.2 |
| 20260503005304 | 16 | 230 | 4.8 | 12.9 | 0.00 | 0.00 | 0.00 | 38 | 1010.2 |
| 20260503005204 | 16 | 232 | 4.8 | 12.9 | 0.00 | 0.00 | 0.00 | 38 | 1010.2 |
| 20260503005104 | 16 | 231 | 4.8 | 12.9 | 0.00 | 0.00 | 0.00 | 38 | 1010.2 |
| 20260503005003 | 17 | 229 | 4.8 | 12.9 | 0.00 | 0.00 | 0.00 | 38 | 1010.2 |
| 20260503004904 | 17 | 226 | 4.8 | 12.9 | 0.00 | 0.00 | 0.00 | 38 | 1010.2 |
| 20260503004803 | 17 | 228 | 4.8 | 12.9 | 0.00 | 0.00 | 0.00 | 38 | 1010.3 |
| 20260503004703 | 17 | 228 | 4.8 | 12.9 | 0.00 | 0.00 | 0.00 | 38 | 1010.3 |
| 20260503004604 | 17 | 227 | 6.4 | 12.9 | 0.00 | 0.00 | 0.00 | 38 | 1010.2 |
| 20260503004505 | 17 | 224 | 6.4 | 12.9 | 0.00 | 0.00 | 0.00 | 38 | 1010.3 |
| 20260503004404 | 17 | 219 | 6.4 | 12.9 | 0.00 | 0.00 | 0.00 | 38 | 1010.2 |
| 20260503004304 | 17 | 220 | 6.4 | 12.9 | 0.00 | 0.00 | 0.00 | 38 | 1010.3 |
| 20260503004204 | 17 | 222 | 6.4 | 12.9 | 0.00 | 0.00 | 0.00 | 38 | 1010.3 |
| 20260503004103 | 17 | 224 | 6.4 | 12.9 | 0.00 | 0.00 | 0.00 | 38 | 1010.2 |
| 20260503004004 | 17 | 224 | 6.4 | 12.9 | 0.00 | 0.00 | 0.00 | 37 | 1010.3 |
| 20260503003918 | 17 | 225 | 6.4 | 12.9 | 0.00 | 0.00 | 0.00 | 37 | 1010.3 |
| 20260503003818 | 17 | 225 | 6.4 | 11.3 | 0.00 | 0.00 | 0.00 | 38 | 1010.3 |
| 20260503003704 | 17 | 228 | 6.4 | 11.3 | 0.00 | 0.00 | 0.00 | 38 | 1010.3 |
| 20260503003603 | 17 | 233 | 8.0 | 22.5 | 0.00 | 0.00 | 0.00 | 37 | 1010.4 |
| 20260503003503 | 17 | 238 | 9.7 | 22.5 | 0.00 | 0.00 | 0.00 | 38 | 1010.4 |
| 20260503003404 | 17 | 246 | 9.7 | 22.5 | 0.00 | 0.00 | 0.00 | 38 | 1010.4 |
| 20260503003305 | 17 | 244 | 9.7 | 22.5 | 0.00 | 0.00 | 0.00 | 37 | 1010.4 |
| 20260503003204 | 17 | 245 | 9.7 | 22.5 | 0.00 | 0.00 | 0.00 | 37 | 1010.4 |
| 20260503003103 | 17 | 250 | 9.7 | 22.5 | 0.00 | 0.00 | 0.00 | 37 | 1010.5 |
| 20260503003003 | 17 | 254 | 9.7 | 22.5 | 0.00 | 0.00 | 0.00 | 37 | 1010.5 |
| 20260503002903 | 17 | 255 | 11.3 | 22.5 | 0.00 | 0.00 | 0.00 | 37 | 1010.5 |
| 20260503002804 | 17 | 259 | 11.3 | 22.5 | 0.00 | 0.00 | 0.00 | 37 | 1010.6 |
| 20260503002704 | 17 | 256 | 11.3 | 22.5 | 0.00 | 0.00 | 0.00 | 37 | 1010.5 |
| 20260503002603 | 17 | 257 | 9.7 | 22.5 | 0.00 | 0.00 | 0.00 | 37 | 1010.6 |
| 20260503002504 | 17 | 257 | 9.7 | 19.3 | 0.00 | 0.00 | 0.00 | 36 | 1010.6 |
| 20260503002405 | 17 | 252 | 9.7 | 19.3 | 0.00 | 0.00 | 0.00 | 36 | 1010.6 |
| 20260503002305 | 17 | 256 | 9.7 | 19.3 | 0.00 | 0.00 | 0.00 | 36 | 1010.6 |
| 20260503002204 | 17 | 250 | 9.7 | 19.3 | 0.00 | 0.00 | 0.00 | 36 | 1010.6 |
| 20260503002103 | 17 | 243 | 9.7 | 19.3 | 0.00 | 0.00 | 0.00 | 36 | 1010.6 |
| 20260503002004 | 17 | 237 | 9.7 | 19.3 | 0.00 | 0.00 | 0.00 | 36 | 1010.6 |
| 20260503001903 | 17 | 238 | 8.0 | 19.3 | 0.00 | 0.00 | 0.00 | 36 | 1010.6 |
| 20260503001804 | 17 | 237 | 8.0 | 19.3 | 0.00 | 0.00 | 0.00 | 36 | 1010.6 |
| 20260503001704 | 17 | 240 | 8.0 | 19.3 | 0.00 | 0.00 | 0.00 | 36 | 1010.6 |
| 20260503001617 | 17 | 236 | 9.7 | 19.3 | 0.00 | 0.00 | 0.00 | 36 | 1010.6 |
| 20260503001503 | 17 | 233 | 9.7 | 19.3 | 0.00 | 0.00 | 0.00 | 36 | 1010.6 |
| 20260503001403 | 17 | 235 | 9.7 | 19.3 | 0.00 | 0.00 | 0.00 | 36 | 1010.6 |
| 20260503001304 | 17 | 235 | 9.7 | 19.3 | 0.00 | 0.00 | 0.00 | 36 | 1010.6 |
| 20260503001204 | 17 | 242 | 9.7 | 19.3 | 0.00 | 0.00 | 0.00 | 36 | 1010.6 |
| 20260503001104 | 17 | 247 | 9.7 | 19.3 | 0.00 | 0.00 | 0.00 | 36 | 1010.6 |
| 20260503001004 | 17 | 249 | 9.7 | 16.1 | 0.00 | 0.00 | 0.00 | 36 | 1010.6 |
| 20260503000903 | 17 | 248 | 12.9 | 29.0 | 0.00 | 0.00 | 0.00 | 36 | 1010.6 |
| 20260503000804 | 17 | 254 | 12.9 | 29.0 | 0.00 | 0.00 | 0.00 | 36 | 1010.6 |
| 20260503000703 | 17 | 255 | 12.9 | 29.0 | 0.00 | 0.00 | 0.00 | 36 | 1010.7 |
| 20260503000603 | 17 | 256 | 11.3 | 29.0 | 0.00 | 0.00 | 0.00 | 36 | 1010.7 |
| 20260503000504 | 17 | 258 | 11.3 | 29.0 | 0.00 | 0.00 | 0.00 | 36 | 1010.8 |
| 20260503000404 | 17 | 254 | 11.3 | 29.0 | 0.00 | 0.00 | 0.00 | 35 | 1010.9 |
| 20260503000318 | 17 | 253 | 11.3 | 29.0 | 0.00 | 0.00 | 0.00 | 35 | 1010.7 |
| 20260503000204 | 17 | 251 | 11.3 | 29.0 | 0.00 | 0.00 | 0.00 | 35 | 1010.8 |
| 20260503000104 | 17 | 243 | 11.3 | 29.0 | 0.00 | 0.00 | 0.00 | 35 | 1010.7 |
| 20260503000004 | 17 | 242 | 9.7 | 29.0 | 0.00 | 0.00 | 0.00 | 34 | 1010.7 |
| 20260502235918 | 17 | 238 | 8.0 | 29.0 | 0.00 | 0.00 | 0.00 | 34 | 1010.7 |
| 20260502235803 | 17 | 219 | 6.4 | 16.1 | 0.00 | 0.00 | 0.00 | 34 | 1010.6 |
| 20260502235704 | 17 | 217 | 6.4 | 12.9 | 0.00 | 0.00 | 0.00 | 33 | 1010.6 |
| 20260502235603 | 17 | 215 | 6.4 | 11.3 | 0.00 | 0.00 | 0.00 | 33 | 1010.6 |
| 20260502235504 | 17 | 218 | 6.4 | 11.3 | 0.00 | 0.00 | 0.00 | 33 | 1010.6 |
| 20260502235404 | 17 | 222 | 6.4 | 11.3 | 0.00 | 0.00 | 0.00 | 33 | 1010.6 |
| 20260502235305 | 17 | 225 | 6.4 | 11.3 | 0.00 | 0.00 | 0.00 | 34 | 1010.6 |
| 20260502235204 | 17 | 225 | 6.4 | 11.3 | 0.00 | 0.00 | 0.00 | 33 | 1010.6 |
| 20260502235104 | 17 | 232 | 4.8 | 11.3 | 0.00 | 0.00 | 0.00 | 33 | 1010.6 |
| 20260502235005 | 17 | 234 | 4.8 | 11.3 | 0.00 | 0.00 | 0.00 | 34 | 1010.6 |
| 20260502234904 | 17 | 235 | 4.8 | 11.3 | 0.00 | 0.00 | 0.00 | 34 | 1010.6 |
| 20260502234803 | 17 | 238 | 4.8 | 11.3 | 0.00 | 0.00 | 0.00 | 34 | 1010.6 |
| 20260502234704 | 17 | 239 | 4.8 | 11.3 | 0.00 | 0.00 | 0.00 | 34 | 1010.6 |
| 20260502234604 | 17 | 239 | 4.8 | 11.3 | 0.00 | 0.00 | 0.00 | 34 | 1010.6 |
| 20260502234504 | 17 | 233 | 3.2 | 11.3 | 0.00 | 0.00 | 0.00 | 33 | 1010.6 |
| 20260502234403 | 17 | 231 | 3.2 | 9.7 | 0.00 | 0.00 | 0.00 | 33 | 1010.6 |
| 20260502234303 | 17 | 224 | 3.2 | 4.8 | 0.00 | 0.00 | 0.00 | 33 | 1010.6 |
| 20260502234218 | 17 | 220 | 3.2 | 4.8 | 0.00 | 0.00 | 0.00 | 34 | 1010.6 |
| 20260502234104 | 17 | 216 | 3.2 | 4.8 | 0.00 | 0.00 | 0.00 | 34 | 1010.6 |
| 20260502234017 | 17 | 215 | 3.2 | 4.8 | 0.00 | 0.00 | 0.00 | 34 | 1010.6 |
| 20260502233903 | 17 | 214 | 3.2 | 4.8 | 0.00 | 0.00 | 0.00 | 33 | 1010.6 |
| 20260502233804 | 17 | 214 | 3.2 | 4.8 | 0.00 | 0.00 | 0.00 | 33 | 1010.6 |
| 20260502233718 | 17 | 205 | 3.2 | 4.8 | 0.00 | 0.00 | 0.00 | 34 | 1010.6 |
| 20260502233604 | 17 | 205 | 3.2 | 4.8 | 0.00 | 0.00 | 0.00 | 33 | 1010.7 |
| 20260502233503 | 17 | 205 | 3.2 | 8.0 | 0.00 | 0.00 | 0.00 | 34 | 1010.6 |
| 20260502233403 | 17 | 199 | 3.2 | 8.0 | 0.00 | 0.00 | 0.00 | 34 | 1010.7 |
| 20260502233303 | 17 | 198 | 3.2 | 8.0 | 0.00 | 0.00 | 0.00 | 33 | 1010.7 |
| 20260502233204 | 17 | 197 | 3.2 | 8.0 | 0.00 | 0.00 | 0.00 | 33 | 1010.7 |
| 20260502233103 | 17 | 192 | 3.2 | 8.0 | 0.00 | 0.00 | 0.00 | 33 | 1010.7 |
| 20260502233004 | 17 | 184 | 3.2 | 8.0 | 0.00 | 0.00 | 0.00 | 33 | 1010.7 |
| 20260502232919 | 17 | 192 | 3.2 | 8.0 | 0.00 | 0.00 | 0.00 | 33 | 1010.7 |
| 20260502232804 | 17 | 207 | 3.2 | 8.0 | 0.00 | 0.00 | 0.00 | 33 | 1010.7 |
| 20260502232705 | 17 | 234 | 3.2 | 8.0 | 0.00 | 0.00 | 0.00 | 33 | 1010.7 |
| 20260502232605 | 17 | 244 | 3.2 | 8.0 | 0.00 | 0.00 | 0.00 | 33 | 1010.6 |
| 20260502232505 | 17 | 260 | 3.2 | 8.0 | 0.00 | 0.00 | 0.00 | 33 | 1010.8 |
| 20260502232403 | 17 | 251 | 3.2 | 4.8 | 0.00 | 0.00 | 0.00 | 33 | 1011.0 |
| 20260502232305 | 17 | 239 | 3.2 | 4.8 | 0.00 | 0.00 | 0.00 | 33 | 1010.9 |
| 20260502232204 | 17 | 236 | 3.2 | 9.7 | 0.00 | 0.00 | 0.00 | 33 | 1010.9 |
| 20260502232105 | 17 | 234 | 4.8 | 9.7 | 0.00 | 0.00 | 0.00 | 33 | 1011.0 |
| 20260502232018 | 17 | 236 | 6.4 | 17.7 | 0.00 | 0.00 | 0.00 | 33 | 1011.0 |
| 20260502231919 | 17 | 240 | 8.0 | 17.7 | 0.00 | 0.00 | 0.00 | 33 | 1010.9 |
| 20260502231804 | 17 | 257 | 8.0 | 17.7 | 0.00 | 0.00 | 0.00 | 33 | 1010.9 |
| 20260502231704 | 17 | 271 | 8.0 | 17.7 | 0.00 | 0.00 | 0.00 | 33 | 1011.0 |
| 20260502231603 | 17 | 267 | 9.7 | 17.7 | 0.00 | 0.00 | 0.00 | 33 | 1010.9 |
| 20260502231504 | 17 | 268 | 9.7 | 17.7 | 0.00 | 0.00 | 0.00 | 32 | 1011.0 |
| 20260502231403 | 17 | 269 | 9.7 | 17.7 | 0.00 | 0.00 | 0.00 | 32 | 1011.0 |
| 20260502231304 | 17 | 265 | 9.7 | 17.7 | 0.00 | 0.00 | 0.00 | 32 | 1011.0 |
| 20260502231203 | 17 | 267 | 9.7 | 17.7 | 0.00 | 0.00 | 0.00 | 32 | 1011.0 |
| 20260502231118 | 17 | 271 | 8.0 | 17.7 | 0.00 | 0.00 | 0.00 | 33 | 1011.0 |
| 20260502231004 | 17 | 272 | 8.0 | 17.7 | 0.00 | 0.00 | 0.00 | 33 | 1010.9 |
| 20260502230904 | 17 | 273 | 8.0 | 16.1 | 0.00 | 0.00 | 0.00 | 32 | 1010.9 |
| 20260502230803 | 17 | 251 | 6.4 | 14.5 | 0.00 | 0.00 | 0.00 | 34 | 1010.9 |
| 20260502230704 | 17 | 232 | 4.8 | 11.3 | 0.00 | 0.00 | 0.00 | 34 | 1010.9 |
| 20260502230604 | 17 | 235 | 4.8 | 11.3 | 0.00 | 0.00 | 0.00 | 34 | 1010.9 |
| 20260502230505 | 17 | 235 | 4.8 | 14.5 | 0.00 | 0.00 | 0.00 | 33 | 1010.9 |
| 20260502230403 | 17 | 231 | 4.8 | 14.5 | 0.00 | 0.00 | 0.00 | 33 | 1011.0 |
| 20260502230319 | 17 | 237 | 4.8 | 14.5 | 0.00 | 0.00 | 0.00 | 32 | 1011.1 |
| 20260502230204 | 17 | 234 | 4.8 | 14.5 | 0.00 | 0.00 | 0.00 | 32 | 1011.1 |
| 20260502230118 | 17 | 234 | 4.8 | 14.5 | 0.00 | 0.00 | 0.00 | 33 | 1011.1 |
| 20260502230004 | 17 | 234 | 4.8 | 14.5 | 0.00 | 0.00 | 0.00 | 33 | 1011.1 |
| 20260502225903 | 17 | 233 | 4.8 | 14.5 | 0.00 | 0.00 | 0.00 | 33 | 1011.1 |
| 20260502225804 | 17 | 231 | 4.8 | 14.5 | 0.00 | 0.00 | 0.00 | 32 | 1011.1 |
| 20260502225704 | 17 | 231 | 4.8 | 14.5 | 0.00 | 0.00 | 0.00 | 32 | 1011.1 |
| 20260502225604 | 17 | 232 | 4.8 | 14.5 | 0.00 | 0.00 | 0.00 | 32 | 1011.1 |
| 20260502225504 | 17 | 226 | 3.2 | 14.5 | 0.00 | 0.00 | 0.00 | 33 | 1011.1 |
| 20260502225418 | 17 | 229 | 3.2 | 6.4 | 0.00 | 0.00 | 0.00 | 33 | 1011.2 |
| 20260502225317 | 17 | 235 | 4.8 | 14.5 | 0.00 | 0.00 | 0.00 | 33 | 1011.2 |
| 20260502225218 | 17 | 244 | 4.8 | 14.5 | 0.00 | 0.00 | 0.00 | 33 | 1011.2 |
| 20260502225103 | 17 | 247 | 4.8 | 14.5 | 0.00 | 0.00 | 0.00 | 33 | 1011.2 |
| 20260502225003 | 17 | 246 | 4.8 | 14.5 | 0.00 | 0.00 | 0.00 | 33 | 1011.2 |
| 20260502224904 | 17 | 247 | 4.8 | 14.5 | 0.00 | 0.00 | 0.00 | 32 | 1011.3 |
| 20260502224804 | 17 | 247 | 6.4 | 14.5 | 0.00 | 0.00 | 0.00 | 33 | 1011.2 |
| 20260502224703 | 17 | 247 | 6.4 | 14.5 | 0.00 | 0.00 | 0.00 | 33 | 1011.2 |
| 20260502224618 | 17 | 251 | 6.4 | 14.5 | 0.00 | 0.00 | 0.00 | 32 | 1011.2 |
| 20260502224504 | 17 | 253 | 8.0 | 14.5 | 0.00 | 0.00 | 0.00 | 32 | 1011.2 |
| 20260502224403 | 17 | 256 | 8.0 | 19.3 | 0.00 | 0.00 | 0.00 | 32 | 1011.2 |
| 20260502224304 | 17 | 253 | 9.7 | 19.3 | 0.00 | 0.00 | 0.00 | 32 | 1011.2 |
| 20260502224203 | 17 | 252 | 8.0 | 19.3 | 0.00 | 0.00 | 0.00 | 32 | 1011.3 |
| 20260502224103 | 17 | 257 | 8.0 | 19.3 | 0.00 | 0.00 | 0.00 | 32 | 1011.2 |
| 20260502224003 | 17 | 259 | 8.0 | 19.3 | 0.00 | 0.00 | 0.00 | 33 | 1011.3 |
| 20260502223904 | 17 | 258 | 8.0 | 19.3 | 0.00 | 0.00 | 0.00 | 32 | 1011.2 |
| 20260502223818 | 17 | 255 | 8.0 | 19.3 | 0.00 | 0.00 | 0.00 | 32 | 1011.3 |
| 20260502223704 | 17 | 256 | 8.0 | 19.3 | 0.00 | 0.00 | 0.00 | 32 | 1011.2 |
| 20260502223603 | 17 | 253 | 8.0 | 19.3 | 0.00 | 0.00 | 0.00 | 32 | 1011.4 |
| 20260502223518 | 17 | 252 | 8.0 | 19.3 | 0.00 | 0.00 | 0.00 | 32 | 1011.2 |
| 20260502223404 | 17 | 252 | 6.4 | 19.3 | 0.00 | 0.00 | 0.00 | 32 | 1011.3 |
| 20260502223304 | 17 | 253 | 6.4 | 14.5 | 0.00 | 0.00 | 0.00 | 32 | 1011.3 |
| 20260502223204 | 17 | 253 | 6.4 | 14.5 | 0.00 | 0.00 | 0.00 | 32 | 1011.3 |
| 20260502223103 | 17 | 244 | 6.4 | 14.5 | 0.00 | 0.00 | 0.00 | 32 | 1011.3 |
| 20260502223017 | 17 | 243 | 6.4 | 14.5 | 0.00 | 0.00 | 0.00 | 32 | 1011.3 |
| 20260502222904 | 17 | 241 | 6.4 | 14.5 | 0.00 | 0.00 | 0.00 | 32 | 1011.3 |
| 20260502222817 | 17 | 242 | 6.4 | 14.5 | 0.00 | 0.00 | 0.00 | 33 | 1011.3 |
| 20260502222717 | 17 | 246 | 4.8 | 14.5 | 0.00 | 0.00 | 0.00 | 33 | 1011.3 |
| 20260502222604 | 17 | 245 | 4.8 | 9.7 | 0.00 | 0.00 | 0.00 | 33 | 1011.3 |
| 20260502222503 | 17 | 249 | 4.8 | 9.7 | 0.00 | 0.00 | 0.00 | 33 | 1011.3 |
| 20260502222404 | 17 | 246 | 4.8 | 9.7 | 0.00 | 0.00 | 0.00 | 32 | 1011.3 |
| 20260502222305 | 17 | 244 | 6.4 | 16.1 | 0.00 | 0.00 | 0.00 | 32 | 1011.3 |
| 20260502222204 | 17 | 246 | 6.4 | 16.1 | 0.00 | 0.00 | 0.00 | 32 | 1011.3 |
| 20260502222104 | 17 | 240 | 6.4 | 16.1 | 0.00 | 0.00 | 0.00 | 32 | 1011.2 |
| 20260502222004 | 17 | 237 | 8.0 | 16.1 | 0.00 | 0.00 | 0.00 | 32 | 1011.3 |
| 20260502221903 | 17 | 240 | 8.0 | 16.1 | 0.00 | 0.00 | 0.00 | 32 | 1011.3 |
| 20260502221803 | 17 | 242 | 8.0 | 16.1 | 0.00 | 0.00 | 0.00 | 32 | 1011.3 |
| 20260502221704 | 17 | 240 | 8.0 | 16.1 | 0.00 | 0.00 | 0.00 | 32 | 1011.2 |
| 20260502221604 | 17 | 240 | 8.0 | 16.1 | 0.00 | 0.00 | 0.00 | 32 | 1011.3 |
| 20260502221518 | 17 | 239 | 8.0 | 16.1 | 0.00 | 0.00 | 0.00 | 32 | 1011.3 |
| 20260502221417 | 17 | 241 | 8.0 | 16.1 | 0.00 | 0.00 | 0.00 | 32 | 1011.3 |
| 20260502221317 | 17 | 245 | 8.0 | 16.1 | 0.00 | 0.00 | 0.00 | 32 | 1011.4 |
| 20260502221205 | 17 | 247 | 9.7 | 25.7 | 0.00 | 0.00 | 0.00 | 32 | 1011.4 |
| 20260502221104 | 17 | 255 | 9.7 | 25.7 | 0.00 | 0.00 | 0.00 | 33 | 1011.4 |
| 20260502221004 | 17 | 256 | 9.7 | 25.7 | 0.00 | 0.00 | 0.00 | 33 | 1011.5 |
| 20260502220903 | 17 | 256 | 9.7 | 25.7 | 0.00 | 0.00 | 0.00 | 32 | 1011.4 |
| 20260502220804 | 17 | 254 | 9.7 | 25.7 | 0.00 | 0.00 | 0.00 | 32 | 1011.5 |
| 20260502220703 | 17 | 257 | 8.0 | 25.7 | 0.00 | 0.00 | 0.00 | 32 | 1011.4 |
| 20260502220603 | 18 | 261 | 9.7 | 25.7 | 0.00 | 0.00 | 0.00 | 32 | 1011.5 |
| 20260502220504 | 18 | 258 | 8.0 | 25.7 | 0.00 | 0.00 | 0.00 | 32 | 1011.4 |
| 20260502220404 | 18 | 258 | 8.0 | 25.7 | 0.00 | 0.00 | 0.00 | 32 | 1011.4 |
| 20260502220304 | 18 | 257 | 8.0 | 25.7 | 0.00 | 0.00 | 0.00 | 31 | 1011.5 |
| 20260502220204 | 18 | 254 | 4.8 | 25.7 | 0.00 | 0.00 | 0.00 | 32 | 1011.6 |
| 20260502220118 | 18 | 247 | 4.8 | 12.9 | 0.00 | 0.00 | 0.00 | 32 | 1011.5 |
| 20260502220003 | 18 | 258 | 3.2 | 12.9 | 0.00 | 0.00 | 0.00 | 32 | 1011.5 |
| 20260502215904 | 18 | 259 | 3.2 | 12.9 | 0.00 | 0.00 | 0.00 | 32 | 1011.4 |
| 20260502215803 | 18 | 258 | 3.2 | 12.9 | 0.00 | 0.00 | 0.00 | 31 | 1011.5 |
| 20260502215704 | 18 | 245 | 4.8 | 12.9 | 0.00 | 0.00 | 0.00 | 31 | 1011.5 |
| 20260502215617 | 17 | 252 | 4.8 | 12.9 | 0.00 | 0.00 | 0.00 | 31 | 1011.5 |
| 20260502215503 | 17 | 254 | 4.8 | 11.3 | 0.00 | 0.00 | 0.00 | 32 | 1011.6 |
| 20260502215404 | 17 | 250 | 4.8 | 11.3 | 0.00 | 0.00 | 0.00 | 34 | 1011.5 |
| 20260502215305 | 17 | 250 | 6.4 | 20.9 | 0.00 | 0.00 | 0.00 | 32 | 1011.6 |
| 20260502215203 | 17 | 248 | 8.0 | 20.9 | 0.00 | 0.00 | 0.00 | 32 | 1011.7 |
| 20260502215104 | 17 | 239 | 8.0 | 20.9 | 0.00 | 0.00 | 0.00 | 32 | 1011.7 |
| 20260502215004 | 17 | 236 | 8.0 | 20.9 | 0.00 | 0.00 | 0.00 | 33 | 1011.7 |
| 20260502214904 | 17 | 240 | 9.7 | 20.9 | 0.00 | 0.00 | 0.00 | 33 | 1011.8 |
| 20260502214803 | 17 | 240 | 9.7 | 20.9 | 0.00 | 0.00 | 0.00 | 33 | 1011.8 |
| 20260502214704 | 17 | 244 | 9.7 | 20.9 | 0.00 | 0.00 | 0.00 | 34 | 1011.8 |
| 20260502214603 | 17 | 236 | 8.0 | 20.9 | 0.00 | 0.00 | 0.00 | 34 | 1011.8 |
| 20260502214517 | 17 | 235 | 8.0 | 20.9 | 0.00 | 0.00 | 0.00 | 33 | 1011.8 |
| 20260502214404 | 17 | 236 | 8.0 | 20.9 | 0.00 | 0.00 | 0.00 | 33 | 1011.7 |
| 20260502214318 | 17 | 237 | 8.0 | 20.9 | 0.00 | 0.00 | 0.00 | 31 | 1011.8 |
| 20260502214204 | 17 | 239 | 6.4 | 12.9 | 0.00 | 0.00 | 0.00 | 32 | 1011.8 |
| 20260502214117 | 17 | 244 | 6.4 | 12.9 | 0.00 | 0.00 | 0.00 | 32 | 1011.9 |
| 20260502214017 | 17 | 250 | 8.0 | 25.7 | 0.00 | 0.00 | 0.00 | 33 | 1011.9 |
| 20260502213904 | 17 | 246 | 9.7 | 25.7 | 0.00 | 0.00 | 0.00 | 32 | 1011.9 |
| 20260502213804 | 17 | 264 | 9.7 | 25.7 | 0.00 | 0.00 | 0.00 | 31 | 1011.9 |
| 20260502213718 | 17 | 266 | 9.7 | 25.7 | 0.00 | 0.00 | 0.00 | 31 | 1012.0 |
| 20260502213604 | 17 | 268 | 9.7 | 25.7 | 0.00 | 0.00 | 0.00 | 32 | 1012.0 |
| 20260502213518 | 17 | 269 | 9.7 | 25.7 | 0.00 | 0.00 | 0.00 | 32 | 1012.0 |
| 20260502213403 | 17 | 269 | 9.7 | 25.7 | 0.00 | 0.00 | 0.00 | 31 | 1012.0 |
| 20260502213318 | 17 | 267 | 11.3 | 25.7 | 0.00 | 0.00 | 0.00 | 31 | 1012.0 |
| 20260502213217 | 17 | 258 | 11.3 | 25.7 | 0.00 | 0.00 | 0.00 | 30 | 1012.0 |
| 20260502213104 | 17 | 256 | 11.3 | 25.7 | 0.00 | 0.00 | 0.00 | 30 | 1012.1 |
| 20260502213003 | 17 | 252 | 11.3 | 25.7 | 0.00 | 0.00 | 0.00 | 33 | 1012.0 |
| 20260502212904 | 17 | 249 | 9.7 | 20.9 | 0.00 | 0.00 | 0.00 | 33 | 1012.1 |
| 20260502212803 | 17 | 237 | 8.0 | 19.3 | 0.00 | 0.00 | 0.00 | 32 | 1012.1 |
| 20260502212704 | 17 | 236 | 8.0 | 19.3 | 0.00 | 0.00 | 0.00 | 32 | 1012.1 |
| 20260502212603 | 17 | 237 | 9.7 | 19.3 | 0.00 | 0.00 | 0.00 | 32 | 1012.1 |
| 20260502212504 | 17 | 243 | 8.0 | 19.3 | 0.00 | 0.00 | 0.00 | 32 | 1012.2 |
| 20260502212404 | 17 | 242 | 8.0 | 19.3 | 0.00 | 0.00 | 0.00 | 32 | 1012.3 |
| 20260502212305 | 17 | 241 | 9.7 | 25.7 | 0.00 | 0.00 | 0.00 | 32 | 1012.3 |
| 20260502212203 | 17 | 255 | 9.7 | 25.7 | 0.00 | 0.00 | 0.00 | 33 | 1012.3 |
| 20260502212104 | 17 | 261 | 8.0 | 25.7 | 0.00 | 0.00 | 0.00 | 32 | 1012.3 |
| 20260502212004 | 17 | 265 | 8.0 | 25.7 | 0.00 | 0.00 | 0.00 | 32 | 1012.4 |
| 20260502211903 | 17 | 269 | 8.0 | 25.7 | 0.00 | 0.00 | 0.00 | 32 | 1012.3 |
| 20260502211817 | 17 | 269 | 8.0 | 25.7 | 0.00 | 0.00 | 0.00 | 32 | 1012.4 |
| 20260502211717 | 17 | 266 | 8.0 | 25.7 | 0.00 | 0.00 | 0.00 | 32 | 1012.3 |
| 20260502211603 | 17 | 268 | 8.0 | 25.7 | 0.00 | 0.00 | 0.00 | 31 | 1012.3 |
| 20260502211504 | 17 | 260 | 8.0 | 25.7 | 0.00 | 0.00 | 0.00 | 31 | 1012.3 |
| 20260502211403 | 17 | 255 | 8.0 | 25.7 | 0.00 | 0.00 | 0.00 | 31 | 1012.5 |
| 20260502211303 | 17 | 259 | 6.4 | 25.7 | 0.00 | 0.00 | 0.00 | 32 | 1012.5 |
| 20260502211217 | 17 | 246 | 6.4 | 11.3 | 0.00 | 0.00 | 0.00 | 32 | 1012.5 |
| 20260502211103 | 17 | 244 | 8.0 | 16.1 | 0.00 | 0.00 | 0.00 | 31 | 1012.5 |
| 20260502211004 | 17 | 244 | 8.0 | 16.1 | 0.00 | 0.00 | 0.00 | 31 | 1012.6 |
| 20260502210904 | 17 | 248 | 8.0 | 16.1 | 0.00 | 0.00 | 0.00 | 30 | 1012.6 |
| 20260502210803 | 17 | 247 | 8.0 | 16.1 | 0.00 | 0.00 | 0.00 | 30 | 1012.6 |
| 20260502210703 | 17 | 246 | 8.0 | 16.1 | 0.00 | 0.00 | 0.00 | 32 | 1012.6 |
| 20260502210618 | 17 | 246 | 8.0 | 16.1 | 0.00 | 0.00 | 0.00 | 33 | 1012.7 |
| 20260502210504 | 17 | 242 | 9.7 | 16.1 | 0.00 | 0.00 | 0.00 | 33 | 1012.7 |
| 20260502210404 | 17 | 235 | 9.7 | 16.1 | 0.00 | 0.00 | 0.00 | 34 | 1012.7 |
| 20260502210303 | 17 | 232 | 9.7 | 16.1 | 0.00 | 0.00 | 0.00 | 33 | 1012.7 |
| 20260502210203 | 17 | 233 | 8.0 | 16.1 | 0.00 | 0.00 | 0.00 | 33 | 1012.7 |
| 20260502210103 | 17 | 234 | 8.0 | 16.1 | 0.00 | 0.00 | 0.00 | 32 | 1012.8 |
| 20260502210018 | 17 | 230 | 8.0 | 16.1 | 0.00 | 0.00 | 0.00 | 33 | 1012.8 |
| 20260502205917 | 17 | 221 | 6.4 | 16.1 | 0.00 | 0.00 | 0.00 | 31 | 1012.8 |
| 20260502205803 | 17 | 220 | 6.4 | 16.1 | 0.00 | 0.00 | 0.00 | 31 | 1012.8 |
| 20260502205703 | 17 | 225 | 6.4 | 16.1 | 0.00 | 0.00 | 0.00 | 31 | 1012.9 |
| 20260502205604 | 17 | 224 | 6.4 | 16.1 | 0.00 | 0.00 | 0.00 | 31 | 1012.8 |
| 20260502205503 | 17 | 226 | 6.4 | 16.1 | 0.00 | 0.00 | 0.00 | 32 | 1012.9 |
| 20260502205404 | 17 | 238 | 4.8 | 16.1 | 0.00 | 0.00 | 0.00 | 31 | 1012.9 |
| 20260502205305 | 17 | 232 | 4.8 | 8.0 | 0.00 | 0.00 | 0.00 | 33 | 1012.9 |
| 20260502205204 | 17 | 235 | 6.4 | 19.3 | 0.00 | 0.00 | 0.00 | 33 | 1013.0 |
| 20260502205103 | 17 | 243 | 8.0 | 19.3 | 0.00 | 0.00 | 0.00 | 32 | 1012.9 |
| 20260502205017 | 17 | 261 | 8.0 | 19.3 | 0.00 | 0.00 | 0.00 | 32 | 1013.0 |
| 20260502204917 | 17 | 262 | 8.0 | 19.3 | 0.00 | 0.00 | 0.00 | 31 | 1013.0 |
| 20260502204804 | 17 | 272 | 9.7 | 19.3 | 0.00 | 0.00 | 0.00 | 31 | 1013.1 |
| 20260502204703 | 17 | 271 | 9.7 | 19.3 | 0.00 | 0.00 | 0.00 | 32 | 1013.0 |
| 20260502204604 | 17 | 273 | 9.7 | 19.3 | 0.00 | 0.00 | 0.00 | 32 | 1013.0 |
| 20260502204503 | 17 | 272 | 9.7 | 19.3 | 0.00 | 0.00 | 0.00 | 31 | 1013.0 |
| 20260502204403 | 17 | 272 | 9.7 | 19.3 | 0.00 | 0.00 | 0.00 | 32 | 1013.1 |
| 20260502204304 | 17 | 272 | 9.7 | 19.3 | 0.00 | 0.00 | 0.00 | 32 | 1013.2 |
| 20260502204204 | 17 | 267 | 9.7 | 19.3 | 0.00 | 0.00 | 0.00 | 30 | 1013.1 |
| 20260502204104 | 17 | 262 | 12.9 | 29.0 | 0.00 | 0.00 | 0.00 | 31 | 1013.1 |
| 20260502204003 | 17 | 248 | 12.9 | 29.0 | 0.00 | 0.00 | 0.00 | 31 | 1013.2 |
| 20260502203904 | 17 | 243 | 14.5 | 29.0 | 0.00 | 0.00 | 0.00 | 35 | 1013.4 |
| 20260502203803 | 17 | 222 | 14.5 | 29.0 | 0.00 | 0.00 | 0.00 | 35 | 1013.3 |
| 20260502203703 | 17 | 220 | 12.9 | 29.0 | 0.00 | 0.00 | 0.00 | 32 | 1013.2 |
| 20260502203604 | 17 | 216 | 12.9 | 29.0 | 0.00 | 0.00 | 0.00 | 32 | 1013.3 |
| 20260502203504 | 17 | 217 | 12.9 | 29.0 | 0.00 | 0.00 | 0.00 | 32 | 1013.3 |
| 20260502203403 | 17 | 216 | 14.5 | 29.0 | 0.00 | 0.00 | 0.00 | 32 | 1013.3 |
| 20260502203318 | 17 | 212 | 14.5 | 29.0 | 0.00 | 0.00 | 0.00 | 31 | 1013.3 |
| 20260502203218 | 17 | 213 | 14.5 | 29.0 | 0.00 | 0.00 | 0.00 | 31 | 1013.4 |
| 20260502203103 | 17 | 216 | 12.9 | 29.0 | 0.00 | 0.00 | 0.00 | 32 | 1013.4 |
| 20260502203004 | 17 | 217 | 11.3 | 29.0 | 0.00 | 0.00 | 0.00 | 32 | 1013.3 |
| 20260502202904 | 17 | 222 | 11.3 | 22.5 | 0.00 | 0.00 | 0.00 | 32 | 1013.4 |
| 20260502202804 | 17 | 236 | 9.7 | 22.5 | 0.00 | 0.00 | 0.00 | 31 | 1013.4 |
| 20260502202718 | 17 | 238 | 9.7 | 22.5 | 0.00 | 0.00 | 0.00 | 31 | 1013.4 |
| 20260502202603 | 17 | 244 | 8.0 | 22.5 | 0.00 | 0.00 | 0.00 | 32 | 1013.5 |
| 20260502202503 | 17 | 248 | 8.0 | 22.5 | 0.00 | 0.00 | 0.00 | 30 | 1013.5 |
| 20260502202403 | 17 | 250 | 8.0 | 22.5 | 0.00 | 0.00 | 0.00 | 31 | 1013.5 |
| 20260502202305 | 17 | 262 | 8.0 | 22.5 | 0.00 | 0.00 | 0.00 | 31 | 1013.5 |
| 20260502202204 | 17 | 266 | 8.0 | 22.5 | 0.00 | 0.00 | 0.00 | 31 | 1013.5 |
| 20260502202103 | 17 | 273 | 8.0 | 22.5 | 0.00 | 0.00 | 0.00 | 31 | 1013.5 |
| 20260502202003 | 17 | 270 | 6.4 | 22.5 | 0.00 | 0.00 | 0.00 | 31 | 1013.6 |
| 20260502201903 | 17 | 273 | 6.4 | 12.9 | 0.00 | 0.00 | 0.00 | 31 | 1013.6 |
| 20260502201803 | 17 | 268 | 6.4 | 12.9 | 0.00 | 0.00 | 0.00 | 31 | 1013.6 |
| 20260502201703 | 17 | 256 | 8.0 | 16.1 | 0.00 | 0.00 | 0.00 | 31 | 1013.6 |
| 20260502201603 | 17 | 247 | 8.0 | 16.1 | 0.00 | 0.00 | 0.00 | 31 | 1013.6 |
| 20260502201517 | 17 | 245 | 8.0 | 16.1 | 0.00 | 0.00 | 0.00 | 34 | 1013.6 |
| 20260502201403 | 17 | 243 | 8.0 | 16.1 | 0.00 | 0.00 | 0.00 | 31 | 1013.6 |
| 20260502201303 | 17 | 242 | 8.0 | 16.1 | 0.00 | 0.00 | 0.00 | 31 | 1013.7 |
| 20260502201217 | 17 | 250 | 8.0 | 16.1 | 0.00 | 0.00 | 0.00 | 32 | 1013.7 |
| 20260502201119 | 17 | 241 | 8.0 | 19.3 | 0.00 | 0.00 | 0.00 | 32 | 1013.7 |
| 20260502201003 | 17 | 237 | 9.7 | 19.3 | 0.00 | 0.00 | 0.00 | 33 | 1013.7 |
| 20260502200903 | 17 | 235 | 9.7 | 19.3 | 0.00 | 0.00 | 0.00 | 34 | 1013.7 |
| 20260502200817 | 17 | 232 | 9.7 | 19.3 | 0.00 | 0.00 | 0.00 | 33 | 1013.7 |
| 20260502200717 | 17 | 239 | 9.7 | 19.3 | 0.00 | 0.00 | 0.00 | 32 | 1013.7 |
| 20260502200604 | 17 | 244 | 9.7 | 19.3 | 0.00 | 0.00 | 0.00 | 33 | 1013.8 |
| 20260502200518 | 16 | 249 | 9.7 | 19.3 | 0.00 | 0.00 | 0.00 | 33 | 1013.7 |
| 20260502200404 | 16 | 249 | 9.7 | 19.3 | 0.00 | 0.00 | 0.00 | 34 | 1013.7 |
| 20260502200318 | 16 | 250 | 11.3 | 19.3 | 0.00 | 0.00 | 0.00 | 34 | 1013.8 |
| 20260502200204 | 16 | 240 | 9.7 | 19.3 | 0.00 | 0.00 | 0.00 | 31 | 1013.8 |
| 20260502200004 | 16 | 240 | 9.7 | 17.7 | 0.00 | 0.00 | 0.00 | 32 | 1013.8 |
| 20260502195917 | 16 | 232 | 9.7 | 17.7 | 0.00 | 0.00 | 0.00 | 34 | 1013.8 |
| 20260502195817 | 16 | 229 | 9.7 | 17.7 | 0.00 | 0.00 | 0.00 | 34 | 1013.8 |
| 20260502195703 | 16 | 224 | 9.7 | 17.7 | 0.00 | 0.00 | 0.00 | 34 | 1013.8 |
| 20260502195603 | 16 | 218 | 9.7 | 17.7 | 0.00 | 0.00 | 0.00 | 34 | 1013.8 |
| 20260502195503 | 16 | 207 | 8.0 | 12.9 | 0.00 | 0.00 | 0.00 | 34 | 1014.0 |
| 20260502195417 | 16 | 203 | 8.0 | 12.9 | 0.00 | 0.00 | 0.00 | 36 | 1014.0 |
| 20260502195318 | 16 | 200 | 8.0 | 12.9 | 0.00 | 0.00 | 0.00 | 34 | 1014.0 |
| 20260502195203 | 16 | 203 | 8.0 | 12.9 | 0.00 | 0.00 | 0.00 | 32 | 1014.0 |
| 20260502195104 | 16 | 197 | 8.0 | 12.9 | 0.00 | 0.00 | 0.00 | 32 | 1014.0 |
| 20260502195003 | 16 | 201 | 8.0 | 12.9 | 0.00 | 0.00 | 0.00 | 33 | 1014.1 |
| 20260502194903 | 16 | 207 | 8.0 | 12.9 | 0.00 | 0.00 | 0.00 | 33 | 1014.0 |
| 20260502194803 | 16 | 212 | 8.0 | 12.9 | 0.00 | 0.00 | 0.00 | 33 | 1014.0 |
| 20260502194704 | 16 | 213 | 9.7 | 24.1 | 0.00 | 0.00 | 0.00 | 33 | 1014.1 |
| 20260502194603 | 16 | 218 | 9.7 | 24.1 | 0.00 | 0.00 | 0.00 | 33 | 1014.1 |
| 20260502194503 | 16 | 220 | 9.7 | 24.1 | 0.00 | 0.00 | 0.00 | 34 | 1014.1 |
| 20260502194403 | 16 | 224 | 11.3 | 24.1 | 0.00 | 0.00 | 0.00 | 35 | 1014.2 |
| 20260502194304 | 16 | 226 | 11.3 | 24.1 | 0.00 | 0.00 | 0.00 | 33 | 1014.2 |
| 20260502194204 | 16 | 235 | 11.3 | 24.1 | 0.00 | 0.00 | 0.00 | 33 | 1014.2 |
| 20260502194117 | 15 | 240 | 11.3 | 24.1 | 0.00 | 0.00 | 0.00 | 33 | 1014.3 |
| 20260502194003 | 15 | 239 | 11.3 | 24.1 | 0.00 | 0.00 | 0.00 | 35 | 1014.3 |
| 20260502193904 | 15 | 236 | 11.3 | 24.1 | 0.00 | 0.00 | 0.00 | 32 | 1014.3 |
| 20260502193804 | 15 | 239 | 11.3 | 24.1 | 0.00 | 0.00 | 0.00 | 33 | 1014.3 |
| 20260502193717 | 16 | 244 | 11.3 | 24.1 | 0.00 | 0.00 | 0.00 | 33 | 1014.3 |
| 20260502193604 | 16 | 249 | 9.7 | 20.9 | 0.00 | 0.00 | 0.00 | 33 | 1014.3 |
| 20260502193503 | 16 | 250 | 11.3 | 20.9 | 0.00 | 0.00 | 0.00 | 32 | 1014.4 |
| 20260502193403 | 16 | 250 | 9.7 | 20.9 | 0.00 | 0.00 | 0.00 | 33 | 1014.4 |
| 20260502193304 | 16 | 246 | 9.7 | 16.1 | 0.00 | 0.00 | 0.00 | 33 | 1014.4 |
| 20260502193204 | 15 | 237 | 8.0 | 12.9 | 0.00 | 0.00 | 0.00 | 34 | 1014.4 |
| 20260502193103 | 15 | 236 | 8.0 | 12.9 | 0.00 | 0.00 | 0.00 | 34 | 1014.4 |
| 20260502193004 | 15 | 231 | 9.7 | 22.5 | 0.00 | 0.00 | 0.00 | 34 | 1014.4 |
| 20260502192917 | 15 | 229 | 9.7 | 22.5 | 0.00 | 0.00 | 0.00 | 33 | 1014.4 |
| 20260502192804 | 15 | 230 | 11.3 | 22.5 | 0.00 | 0.00 | 0.00 | 33 | 1014.5 |
| 20260502192704 | 15 | 228 | 11.3 | 22.5 | 0.00 | 0.00 | 0.00 | 35 | 1014.6 |
| 20260502192604 | 15 | 224 | 9.7 | 22.5 | 0.00 | 0.00 | 0.00 | 33 | 1014.5 |
| 20260502192504 | 15 | 222 | 9.7 | 22.5 | 0.00 | 0.00 | 0.00 | 33 | 1014.5 |
| 20260502192403 | 15 | 223 | 9.7 | 22.5 | 0.00 | 0.00 | 0.00 | 33 | 1014.5 |
| 20260502192317 | 15 | 218 | 9.7 | 22.5 | 0.00 | 0.00 | 0.00 | 34 | 1014.6 |
| 20260502192204 | 15 | 226 | 9.7 | 22.5 | 0.00 | 0.00 | 0.00 | 33 | 1014.6 |
| 20260502192103 | 15 | 230 | 11.3 | 22.5 | 0.00 | 0.00 | 0.00 | 35 | 1014.6 |
| 20260502192004 | 15 | 231 | 9.7 | 22.5 | 0.00 | 0.00 | 0.00 | 34 | 1014.7 |
| 20260502191904 | 15 | 231 | 9.7 | 17.7 | 0.00 | 0.00 | 0.00 | 34 | 1014.6 |
| 20260502191803 | 15 | 227 | 8.0 | 17.7 | 0.00 | 0.00 | 0.00 | 35 | 1014.7 |
| 20260502191718 | 15 | 227 | 8.0 | 17.7 | 0.00 | 0.00 | 0.00 | 35 | 1014.7 |
| 20260502191604 | 15 | 229 | 8.0 | 17.7 | 0.00 | 0.00 | 0.00 | 35 | 1014.8 |
| 20260502191517 | 15 | 230 | 8.0 | 17.7 | 0.00 | 0.00 | 0.00 | 33 | 1014.7 |
| 20260502191403 | 15 | 230 | 9.7 | 17.7 | 0.00 | 0.00 | 0.00 | 32 | 1014.7 |
| 20260502191303 | 15 | 236 | 9.7 | 17.7 | 0.00 | 0.00 | 0.00 | 33 | 1014.7 |
| 20260502191204 | 15 | 231 | 9.7 | 17.7 | 0.00 | 0.00 | 0.00 | 32 | 1014.8 |
| 20260502191103 | 15 | 223 | 8.0 | 17.7 | 0.00 | 0.00 | 0.00 | 34 | 1014.8 |
| 20260502191003 | 15 | 224 | 8.0 | 17.7 | 0.00 | 0.00 | 0.00 | 34 | 1014.8 |
| 20260502190903 | 15 | 229 | 8.0 | 17.7 | 0.00 | 0.00 | 0.00 | 33 | 1014.8 |
| 20260502190803 | 15 | 233 | 8.0 | 17.7 | 0.00 | 0.00 | 0.00 | 33 | 1014.9 |
| 20260502190703 | 15 | 232 | 8.0 | 17.7 | 0.00 | 0.00 | 0.00 | 33 | 1014.9 |
| 20260502190604 | 15 | 230 | 8.0 | 17.7 | 0.00 | 0.00 | 0.00 | 33 | 1014.9 |
| 20260502190503 | 15 | 223 | 8.0 | 17.7 | 0.00 | 0.00 | 0.00 | 33 | 1014.9 |
| 20260502190404 | 15 | 221 | 8.0 | 17.7 | 0.00 | 0.00 | 0.00 | 33 | 1014.9 |
| 20260502190317 | 15 | 222 | 6.4 | 14.5 | 0.00 | 0.00 | 0.00 | 36 | 1014.9 |
| 20260502190205 | 15 | 220 | 6.4 | 12.9 | 0.00 | 0.00 | 0.00 | 36 | 1014.9 |
| 20260502190104 | 15 | 235 | 6.4 | 11.3 | 0.00 | 0.00 | 0.00 | 34 | 1015.0 |
| 20260502190004 | 15 | 232 | 6.4 | 12.9 | 0.00 | 0.00 | 0.00 | 33 | 1015.0 |
| 20260502185905 | 15 | 234 | 8.0 | 14.5 | 0.00 | 0.00 | 0.00 | 34 | 1015.0 |
| 20260502185804 | 15 | 232 | 8.0 | 14.5 | 0.00 | 0.00 | 0.00 | 33 | 1015.1 |
| 20260502185703 | 15 | 229 | 9.7 | 19.3 | 0.00 | 0.00 | 0.00 | 32 | 1015.1 |
| 20260502185603 | 15 | 228 | 9.7 | 19.3 | 0.00 | 0.00 | 0.00 | 34 | 1015.2 |
| 20260502185504 | 15 | 231 | 9.7 | 19.3 | 0.00 | 0.00 | 0.00 | 33 | 1015.1 |
| 20260502185404 | 15 | 234 | 9.7 | 19.3 | 0.00 | 0.00 | 0.00 | 32 | 1015.2 |
| 20260502185305 | 15 | 232 | 9.7 | 19.3 | 0.00 | 0.00 | 0.00 | 32 | 1015.2 |
| 20260502185203 | 15 | 230 | 8.0 | 19.3 | 0.00 | 0.00 | 0.00 | 32 | 1015.2 |
| 20260502185103 | 15 | 223 | 8.0 | 19.3 | 0.00 | 0.00 | 0.00 | 32 | 1015.2 |
| 20260502185017 | 15 | 227 | 8.0 | 19.3 | 0.00 | 0.00 | 0.00 | 32 | 1015.2 |
| 20260502184903 | 15 | 221 | 8.0 | 19.3 | 0.00 | 0.00 | 0.00 | 32 | 1015.3 |
| 20260502184804 | 15 | 212 | 8.0 | 19.3 | 0.00 | 0.00 | 0.00 | 33 | 1015.3 |
| 20260502184703 | 15 | 212 | 4.8 | 19.3 | 0.00 | 0.00 | 0.00 | 34 | 1015.3 |
| 20260502184604 | 15 | 212 | 4.8 | 11.3 | 0.00 | 0.00 | 0.00 | 35 | 1015.2 |
| 20260502184503 | 15 | 211 | 6.4 | 11.3 | 0.00 | 0.00 | 0.00 | 34 | 1015.3 |
| 20260502184404 | 15 | 214 | 8.0 | 24.1 | 0.00 | 0.00 | 0.00 | 34 | 1015.2 |
| 20260502184303 | 15 | 203 | 8.0 | 24.1 | 0.00 | 0.00 | 0.00 | 34 | 1015.3 |
| 20260502184218 | 15 | 201 | 8.0 | 24.1 | 0.00 | 0.00 | 0.00 | 34 | 1015.3 |
| 20260502184117 | 15 | 204 | 8.0 | 24.1 | 0.00 | 0.00 | 0.00 | 35 | 1015.3 |
| 20260502184004 | 15 | 203 | 8.0 | 24.1 | 0.00 | 0.00 | 0.00 | 32 | 1015.4 |
| 20260502183903 | 15 | 206 | 8.0 | 24.1 | 0.00 | 0.00 | 0.00 | 34 | 1015.4 |
| 20260502183804 | 15 | 208 | 8.0 | 24.1 | 0.00 | 0.00 | 0.00 | 34 | 1015.4 |
| 20260502183718 | 15 | 209 | 9.7 | 24.1 | 0.00 | 0.00 | 0.00 | 33 | 1015.5 |
| 20260502183603 | 15 | 217 | 9.7 | 24.1 | 0.00 | 0.00 | 0.00 | 35 | 1015.4 |
| 20260502183503 | 15 | 220 | 9.7 | 24.1 | 0.00 | 0.00 | 0.00 | 32 | 1015.3 |
| 20260502183417 | 15 | 221 | 9.7 | 24.1 | 0.00 | 0.00 | 0.00 | 34 | 1015.3 |
| 20260502183303 | 15 | 245 | 8.0 | 19.3 | 0.00 | 0.00 | 0.00 | 33 | 1015.4 |
| 20260502183203 | 15 | 255 | 8.0 | 19.3 | 0.00 | 0.00 | 0.00 | 33 | 1015.5 |
| 20260502183117 | 15 | 255 | 9.7 | 19.3 | 0.00 | 0.00 | 0.00 | 33 | 1015.5 |
| 20260502183017 | 15 | 255 | 9.7 | 19.3 | 0.00 | 0.00 | 0.00 | 35 | 1015.5 |
| 20260502182904 | 15 | 248 | 9.7 | 19.3 | 0.00 | 0.00 | 0.00 | 35 | 1015.6 |
| 20260502182803 | 15 | 241 | 11.3 | 19.3 | 0.00 | 0.00 | 0.00 | 32 | 1015.5 |
| 20260502182717 | 15 | 233 | 9.7 | 19.3 | 0.00 | 0.00 | 0.00 | 34 | 1015.6 |
| 20260502182603 | 15 | 224 | 9.7 | 16.1 | 0.00 | 0.00 | 0.00 | 34 | 1015.6 |
| 20260502182518 | 15 | 223 | 8.0 | 16.1 | 0.00 | 0.00 | 0.00 | 33 | 1015.6 |
| 20260502182404 | 15 | 214 | 8.0 | 16.1 | 0.00 | 0.00 | 0.00 | 35 | 1015.7 |
| 20260502182305 | 15 | 211 | 9.7 | 16.1 | 0.00 | 0.00 | 0.00 | 33 | 1015.6 |
| 20260502182203 | 15 | 209 | 9.7 | 16.1 | 0.00 | 0.00 | 0.00 | 33 | 1015.6 |
| 20260502182117 | 14 | 208 | 9.7 | 16.1 | 0.00 | 0.00 | 0.00 | 34 | 1015.6 |
| 20260502182004 | 14 | 203 | 9.7 | 16.1 | 0.00 | 0.00 | 0.00 | 33 | 1015.6 |
| 20260502181904 | 14 | 210 | 8.0 | 16.1 | 0.00 | 0.00 | 0.00 | 34 | 1015.6 |
| 20260502181803 | 14 | 211 | 6.4 | 12.9 | 0.00 | 0.00 | 0.00 | 34 | 1015.6 |
| 20260502181704 | 14 | 220 | 6.4 | 12.9 | 0.00 | 0.00 | 0.00 | 33 | 1015.6 |
| 20260502181603 | 14 | 225 | 6.4 | 12.9 | 0.00 | 0.00 | 0.00 | 33 | 1015.6 |
| 20260502181517 | 14 | 227 | 6.4 | 12.9 | 0.00 | 0.00 | 0.00 | 34 | 1015.6 |
| 20260502181403 | 14 | 234 | 8.0 | 19.3 | 0.00 | 0.00 | 0.00 | 32 | 1015.7 |
| 20260502181303 | 14 | 244 | 8.0 | 19.3 | 0.00 | 0.00 | 0.00 | 32 | 1015.7 |
| 20260502181217 | 15 | 250 | 8.0 | 19.3 | 0.00 | 0.00 | 0.00 | 33 | 1015.7 |
| 20260502181105 | 15 | 257 | 8.0 | 19.3 | 0.00 | 0.00 | 0.00 | 35 | 1015.7 |
| 20260502181017 | 15 | 268 | 9.7 | 19.3 | 0.00 | 0.00 | 0.00 | 36 | 1015.7 |
| 20260502180903 | 14 | 260 | 9.7 | 19.3 | 0.00 | 0.00 | 0.00 | 36 | 1015.7 |
| 20260502180804 | 14 | 262 | 9.7 | 19.3 | 0.00 | 0.00 | 0.00 | 33 | 1015.7 |
| 20260502180704 | 14 | 258 | 9.7 | 19.3 | 0.00 | 0.00 | 0.00 | 33 | 1015.8 |
| 20260502180603 | 14 | 253 | 9.7 | 19.3 | 0.00 | 0.00 | 0.00 | 35 | 1015.8 |
| 20260502180503 | 14 | 251 | 9.7 | 19.3 | 0.00 | 0.00 | 0.00 | 34 | 1015.9 |
| 20260502180403 | 14 | 253 | 9.7 | 19.3 | 0.00 | 0.00 | 0.00 | 33 | 1015.8 |
| 20260502180304 | 14 | 247 | 9.7 | 19.3 | 0.00 | 0.00 | 0.00 | 33 | 1015.8 |
| 20260502180204 | 14 | 243 | 8.0 | 19.3 | 0.00 | 0.00 | 0.00 | 33 | 1015.9 |
| 20260502170504 | 13 | 239 | 9.7 | 19.3 | 0.00 | 0.00 | 0.00 | 37 | 1016.9 |
| 20260502170403 | 13 | 239 | 9.7 | 19.3 | 0.00 | 0.00 | 0.00 | 37 | 1016.9 |
| 20260502170304 | 13 | 239 | 9.7 | 19.3 | 0.00 | 0.00 | 0.00 | 36 | 1016.8 |
| 20260502170203 | 13 | 233 | 8.0 | 17.7 | 0.00 | 0.00 | 0.00 | 38 | 1016.7 |
| 20260502170103 | 13 | 229 | 8.0 | 17.7 | 0.00 | 0.00 | 0.00 | 38 | 1016.9 |
| 20260502164303 | 13 | 276 | 8.0 | 16.1 | 0.00 | 0.00 | 0.00 | 35 | 1017.2 |
| 20260502164203 | 13 | 265 | 8.0 | 16.1 | 0.00 | 0.00 | 0.00 | 36 | 1017.2 |
| 20260502164103 | 13 | 254 | 8.0 | 14.5 | 0.00 | 0.00 | 0.00 | 36 | 1017.3 |
| 20260502164003 | 13 | 242 | 6.4 | 14.5 | 0.00 | 0.00 | 0.00 | 37 | 1017.3 |
| 20260502163903 | 13 | 237 | 6.4 | 14.5 | 0.00 | 0.00 | 0.00 | 38 | 1017.3 |
| 20260502163803 | 13 | 237 | 6.4 | 14.5 | 0.00 | 0.00 | 0.00 | 38 | 1017.3 |
| 20260502163703 | 13 | 235 | 8.0 | 14.5 | 0.00 | 0.00 | 0.00 | 37 | 1017.3 |
| 20260502163604 | 13 | 236 | 6.4 | 14.5 | 0.00 | 0.00 | 0.00 | 37 | 1017.3 |
| 20260502163503 | 13 | 241 | 6.4 | 12.9 | 0.00 | 0.00 | 0.00 | 38 | 1017.3 |
| 20260502163417 | 13 | 237 | 6.4 | 12.9 | 0.00 | 0.00 | 0.00 | 36 | 1017.4 |
| 20260502163303 | 13 | 240 | 6.4 | 12.9 | 0.00 | 0.00 | 0.00 | 36 | 1017.3 |
| 20260502163203 | 13 | 243 | 6.4 | 12.9 | 0.00 | 0.00 | 0.00 | 37 | 1017.4 |
| 20260502163103 | 13 | 243 | 8.0 | 19.3 | 0.00 | 0.00 | 0.00 | 38 | 1017.4 |
| 20260502163017 | 13 | 248 | 8.0 | 19.3 | 0.00 | 0.00 | 0.00 | 37 | 1017.4 |
| 20260502162918 | 13 | 252 | 8.0 | 19.3 | 0.00 | 0.00 | 0.00 | 38 | 1017.5 |
| 20260502162803 | 13 | 253 | 8.0 | 19.3 | 0.00 | 0.00 | 0.00 | 37 | 1017.4 |
| 20260502162703 | 13 | 259 | 8.0 | 19.3 | 0.00 | 0.00 | 0.00 | 37 | 1017.4 |
| 20260502162603 | 13 | 264 | 8.0 | 19.3 | 0.00 | 0.00 | 0.00 | 37 | 1017.4 |
| 20260502162503 | 13 | 267 | 8.0 | 19.3 | 0.00 | 0.00 | 0.00 | 37 | 1017.5 |
| 20260502162403 | 13 | 270 | 8.0 | 19.3 | 0.00 | 0.00 | 0.00 | 37 | 1017.4 |
| 20260502162305 | 13 | 269 | 8.0 | 19.3 | 0.00 | 0.00 | 0.00 | 37 | 1017.4 |
| 20260502162203 | 13 | 271 | 6.4 | 19.3 | 0.00 | 0.00 | 0.00 | 36 | 1017.4 |
| 20260502162103 | 13 | 276 | 6.4 | 19.3 | 0.00 | 0.00 | 0.00 | 36 | 1017.4 |
| 20260502162003 | 13 | 279 | 4.8 | 17.7 | 0.00 | 0.00 | 0.00 | 35 | 1017.4 |
| 20260502161903 | 13 | 279 | 4.8 | 14.5 | 0.00 | 0.00 | 0.00 | 36 | 1017.5 |
| 20260502161804 | 13 | 280 | 4.8 | 14.5 | 0.00 | 0.00 | 0.00 | 35 | 1017.5 |
| 20260502161718 | 13 | 282 | 4.8 | 14.5 | 0.00 | 0.00 | 0.00 | 35 | 1017.5 |
| 20260502161603 | 13 | 278 | 6.4 | 14.5 | 0.00 | 0.00 | 0.00 | 36 | 1017.5 |
| 20260502161503 | 13 | 283 | 6.4 | 14.5 | 0.00 | 0.00 | 0.00 | 37 | 1017.5 |
| 20260502161403 | 13 | 288 | 6.4 | 14.5 | 0.00 | 0.00 | 0.00 | 37 | 1017.5 |
| 20260502161304 | 13 | 283 | 6.4 | 14.5 | 0.00 | 0.00 | 0.00 | 35 | 1017.5 |
| 20260502161203 | 13 | 286 | 6.4 | 17.7 | 0.00 | 0.00 | 0.00 | 35 | 1017.5 |
| 20260502161117 | 13 | 284 | 8.0 | 17.7 | 0.00 | 0.00 | 0.00 | 34 | 1017.6 |
| 20260502161003 | 13 | 285 | 8.0 | 17.7 | 0.00 | 0.00 | 0.00 | 38 | 1017.6 |
| 20260502160903 | 13 | 290 | 8.0 | 17.7 | 0.00 | 0.00 | 0.00 | 38 | 1017.6 |
| 20260502160817 | 13 | 294 | 8.0 | 17.7 | 0.00 | 0.00 | 0.00 | 36 | 1017.6 |
| 20260502160704 | 13 | 292 | 8.0 | 17.7 | 0.00 | 0.00 | 0.00 | 36 | 1017.7 |
| 20260502160603 | 12 | 288 | 8.0 | 17.7 | 0.00 | 0.00 | 0.00 | 37 | 1017.6 |
| 20260502160503 | 12 | 276 | 8.0 | 17.7 | 0.00 | 0.00 | 0.00 | 37 | 1017.7 |
| 20260502160403 | 12 | 269 | 8.0 | 17.7 | 0.00 | 0.00 | 0.00 | 37 | 1017.7 |
| 20260502160303 | 12 | 265 | 8.0 | 17.7 | 0.00 | 0.00 | 0.00 | 37 | 1017.7 |
| 20260502160217 | 12 | 271 | 6.4 | 17.7 | 0.00 | 0.00 | 0.00 | 37 | 1017.7 |
| 20260502160103 | 12 | 274 | 8.0 | 14.5 | 0.00 | 0.00 | 0.00 | 38 | 1017.7 |
| 20260502152217 | 12 | 284 | 6.4 | 14.5 | 0.00 | 0.00 | 0.00 | 40 | 1018.0 |
| 20260502152103 | 12 | 282 | 6.4 | 14.5 | 0.00 | 0.00 | 0.00 | 39 | 1018.0 |
| 20260502152004 | 12 | 282 | 6.4 | 14.5 | 0.00 | 0.00 | 0.00 | 39 | 1018.0 |
| 20260502151903 | 12 | 282 | 6.4 | 14.5 | 0.00 | 0.00 | 0.00 | 39 | 1018.0 |
| 20260502151803 | 12 | 272 | 6.4 | 14.5 | 0.00 | 0.00 | 0.00 | 38 | 1018.1 |
| 20260502151704 | 12 | 270 | 6.4 | 14.5 | 0.00 | 0.00 | 0.00 | 39 | 1018.0 |
| 20260502151603 | 12 | 260 | 4.8 | 12.9 | 0.00 | 0.00 | 0.00 | 39 | 1018.0 |
| 20260502151504 | 11 | 253 | 4.8 | 9.7 | 0.00 | 0.00 | 0.00 | 39 | 1018.0 |
| 20260502151403 | 11 | 252 | 4.8 | 9.7 | 0.00 | 0.00 | 0.00 | 39 | 1018.2 |
| 20260502151303 | 11 | 250 | 4.8 | 9.7 | 0.00 | 0.00 | 0.00 | 39 | 1018.2 |
| 20260502151203 | 11 | 248 | 4.8 | 9.7 | 0.00 | 0.00 | 0.00 | 40 | 1018.2 |
| 20260502151104 | 11 | 252 | 4.8 | 9.7 | 0.00 | 0.00 | 0.00 | 40 | 1018.2 |
| 20260502151004 | 11 | 247 | 4.8 | 9.7 | 0.00 | 0.00 | 0.00 | 41 | 1018.2 |
| 20260502150917 | 11 | 245 | 4.8 | 12.9 | 0.00 | 0.00 | 0.00 | 40 | 1018.2 |
| 20260502150803 | 11 | 232 | 6.4 | 16.1 | 0.00 | 0.00 | 0.00 | 40 | 1018.2 |
| 20260502150703 | 11 | 234 | 6.4 | 16.1 | 0.00 | 0.00 | 0.00 | 40 | 1018.1 |
| 20260502150603 | 11 | 233 | 6.4 | 16.1 | 0.00 | 0.00 | 0.00 | 41 | 1018.2 |
| 20260502150503 | 11 | 237 | 8.0 | 16.1 | 0.00 | 0.00 | 0.00 | 41 | 1018.2 |
| 20260502150403 | 11 | 233 | 8.0 | 16.1 | 0.00 | 0.00 | 0.00 | 41 | 1018.1 |
| 20260502150303 | 11 | 234 | 8.0 | 16.1 | 0.00 | 0.00 | 0.00 | 41 | 1018.1 |
| 20260502150203 | 11 | 234 | 8.0 | 16.1 | 0.00 | 0.00 | 0.00 | 41 | 1018.1 |
| 20260502150103 | 11 | 233 | 8.0 | 16.1 | 0.00 | 0.00 | 0.00 | 41 | 1018.1 |
| 20260502140119 | 10 | 281 | 3.2 | 8.0 | 0.00 | 0.00 | 0.00 | 47 | 1018.6 |
| 20260502130705 | 6 | 360 | 3.2 | 8.0 | 0.00 | 0.00 | 0.00 | 60 | 1018.6 |
| 20260502130605 | 6 | 360 | 4.8 | 8.0 | 0.00 | 0.00 | 0.00 | 60 | 1018.6 |
| 20260502130505 | 6 | 360 | 4.8 | 8.0 | 0.00 | 0.00 | 0.00 | 61 | 1018.6 |
| 20260502130404 | 6 | 360 | 3.2 | 8.0 | 0.00 | 0.00 | 0.00 | 61 | 1018.6 |
| 20260502130305 | 6 | 360 | 3.2 | 8.0 | 0.00 | 0.00 | 0.00 | 61 | 1018.6 |
| 20260502130204 | 6 | 360 | 3.2 | 8.0 | 0.00 | 0.00 | 0.00 | 61 | 1018.6 |
| 20260502130119 | 6 | 360 | 3.2 | 8.0 | 0.00 | 0.00 | 0.00 | 61 | 1018.7 |
| 20260502123805 | 5 | 360 | 1.6 | 6.4 | 0.00 | 0.00 | 0.00 | 65 | 1018.5 |
| 20260502123719 | 5 | 360 | 1.6 | 4.8 | 0.00 | 0.00 | 0.00 | 66 | 1018.5 |
| 20260502123605 | 5 | 360 | 3.2 | 4.8 | 0.00 | 0.00 | 0.00 | 66 | 1018.5 |
| 20260502123505 | 5 | 360 | 3.2 | 4.8 | 0.00 | 0.00 | 0.00 | 66 | 1018.5 |
| 20260502123404 | 5 | 360 | 3.2 | 4.8 | 0.00 | 0.00 | 0.00 | 66 | 1018.4 |
| 20260502123305 | 5 | 360 | 3.2 | 4.8 | 0.00 | 0.00 | 0.00 | 67 | 1018.4 |
| 20260502123204 | 5 | 360 | 3.2 | 4.8 | 0.00 | 0.00 | 0.00 | 67 | 1018.4 |
| 20260502123106 | 5 | 360 | 3.2 | 4.8 | 0.00 | 0.00 | 0.00 | 66 | 1018.4 |
| 20260502123018 | 5 | 360 | 3.2 | 4.8 | 0.00 | 0.00 | 0.00 | 67 | 1018.4 |
| 20260502122905 | 5 | 360 | 1.6 | 4.8 | 0.00 | 0.00 | 0.00 | 67 | 1018.4 |
| 20260502122805 | 5 | 360 | 1.6 | 4.8 | 0.00 | 0.00 | 0.00 | 67 | 1018.3 |
| 20260502122704 | 5 | 360 | 1.6 | 4.8 | 0.00 | 0.00 | 0.00 | 68 | 1018.4 |
| 20260502122605 | 5 | 360 | 1.6 | 4.8 | 0.00 | 0.00 | 0.00 | 68 | 1018.3 |
| 20260502122505 | 5 | 360 | 1.6 | 3.2 | 0.00 | 0.00 | 0.00 | 68 | 1018.3 |
| 20260502122404 | 4 | 360 | 1.6 | 3.2 | 0.00 | 0.00 | 0.00 | 68 | 1018.3 |
| 20260502122306 | 4 | 360 | 1.6 | 3.2 | 0.00 | 0.00 | 0.00 | 68 | 1018.3 |
| 20260502122218 | 4 | 360 | 1.6 | 3.2 | 0.00 | 0.00 | 0.00 | 68 | 1018.4 |
| 20260502122105 | 4 | 360 | 1.6 | 3.2 | 0.00 | 0.00 | 0.00 | 68 | 1018.3 |
| 20260502122018 | 4 | 360 | 1.6 | 3.2 | 0.00 | 0.00 | 0.00 | 68 | 1018.3 |
| 20260502121904 | 4 | 360 | 1.6 | 3.2 | 0.00 | 0.00 | 0.00 | 68 | 1018.3 |
| 20260502121819 | 4 | 360 | 1.6 | 3.2 | 0.00 | 0.00 | 0.00 | 69 | 1018.4 |
| 20260502121705 | 4 | 360 | 1.6 | 3.2 | 0.00 | 0.00 | 0.00 | 69 | 1018.3 |
| 20260502121605 | 4 | 360 | 1.6 | 3.2 | 0.00 | 0.00 | 0.00 | 69 | 1018.3 |
| 20260502121505 | 4 | 360 | 1.6 | 3.2 | 0.00 | 0.00 | 0.00 | 69 | 1018.3 |
| 20260502121418 | 4 | 360 | 0.0 | 3.2 | 0.00 | 0.00 | 0.00 | 69 | 1018.3 |
| 20260502121305 | 4 | 360 | 1.6 | 3.2 | 0.00 | 0.00 | 0.00 | 69 | 1018.3 |
| 20260502121204 | 4 | 360 | 1.6 | 3.2 | 0.00 | 0.00 | 0.00 | 69 | 1018.3 |
| 20260502121105 | 3 | 360 | 1.6 | 3.2 | 0.00 | 0.00 | 0.00 | 69 | 1018.3 |
| 20260502121005 | 3 | 360 | 1.6 | 3.2 | 0.00 | 0.00 | 0.00 | 69 | 1018.3 |
| 20260502120904 | 3 | 360 | 1.6 | 4.8 | 0.00 | 0.00 | 0.00 | 69 | 1018.3 |
| 20260502120805 | 3 | 360 | 1.6 | 4.8 | 0.00 | 0.00 | 0.00 | 69 | 1018.3 |
| 20260502120718 | 3 | 360 | 1.6 | 6.4 | 0.00 | 0.00 | 0.00 | 69 | 1018.3 |
| 20260502120604 | 3 | 360 | 3.2 | 6.4 | 0.00 | 0.00 | 0.00 | 70 | 1018.4 |
| 20260502120505 | 3 | 360 | 3.2 | 6.4 | 0.00 | 0.00 | 0.00 | 70 | 1018.4 |
| 20260502120419 | 3 | 360 | 3.2 | 6.4 | 0.00 | 0.00 | 0.00 | 70 | 1018.4 |
| 20260502120305 | 3 | 360 | 3.2 | 6.4 | 0.00 | 0.00 | 0.00 | 70 | 1018.4 |
| 20260502120204 | 3 | 360 | 3.2 | 6.4 | 0.00 | 0.00 | 0.00 | 70 | 1018.4 |
| 20260502120105 | 3 | 360 | 1.6 | 6.4 | 0.00 | 0.00 | 0.00 | 71 | 1018.3 |
| 20260502115904 | 3 | 360 | 1.6 | 6.4 | 0.00 | 0.00 | 0.00 | 72 | 1018.3 |
| 20260502115805 | 3 | 360 | 1.6 | 6.4 | 0.00 | 0.00 | 0.00 | 73 | 1018.3 |
| 20260502115705 | 2 | 360 | 1.6 | 6.4 | 0.00 | 0.00 | 0.00 | 73 | 1018.3 |
| 20260502115604 | 2 | 360 | 1.6 | 3.2 | 0.00 | 0.00 | 0.00 | 73 | 1018.3 |
| 20260502115504 | 2 | 360 | 1.6 | 3.2 | 0.00 | 0.00 | 0.00 | 74 | 1018.3 |
| 20260502115404 | 2 | 360 | 1.6 | 3.2 | 0.00 | 0.00 | 0.00 | 74 | 1018.3 |
| 20260502115306 | 2 | 360 | 1.6 | 3.2 | 0.00 | 0.00 | 0.00 | 74 | 1018.3 |
| 20260502115205 | 2 | 360 | 1.6 | 3.2 | 0.00 | 0.00 | 0.00 | 75 | 1018.3 |
| 20260502115104 | 2 | 360 | 0.0 | 1.6 | 0.00 | 0.00 | 0.00 | 75 | 1018.3 |
| 20260502115005 | 2 | 360 | 1.6 | 3.2 | 0.00 | 0.00 | 0.00 | 76 | 1018.3 |
| 20260502114904 | 2 | 360 | 1.6 | 3.2 | 0.00 | 0.00 | 0.00 | 76 | 1018.2 |
| 20260502114805 | 2 | 360 | 1.6 | 3.2 | 0.00 | 0.00 | 0.00 | 76 | 1018.2 |
| 20260502114705 | 2 | 360 | 0.0 | 3.2 | 0.00 | 0.00 | 0.00 | 76 | 1018.3 |
| 20260502114604 | 1 | 360 | 0.0 | 3.2 | 0.00 | 0.00 | 0.00 | 76 | 1018.3 |
| 20260502114419 | 1 | 360 | 0.0 | 3.2 | 0.00 | 0.00 | 0.00 | 77 | 1018.3 |
| 20260502114304 | 1 | 360 | 0.0 | 3.2 | 0.00 | 0.00 | 0.00 | 77 | 1018.2 |
| 20260502114204 | 1 | 360 | 0.0 | 3.2 | 0.00 | 0.00 | 0.00 | 77 | 1018.2 |
| 20260502114105 | 1 | 360 | 0.0 | 3.2 | 0.00 | 0.00 | 0.00 | 77 | 1018.2 |
| 20260502114004 | 1 | 360 | 0.0 | 3.2 | 0.00 | 0.00 | 0.00 | 77 | 1018.2 |
| 20260502113905 | 1 | 0 | 0.0 | 0.0 | 0.00 | 0.00 | 0.00 | 77 | 1018.2 |
| 20260502113805 | 1 | 0 | 0.0 | 0.0 | 0.00 | 0.00 | 0.00 | 77 | 1018.2 |
| 20260502113718 | 1 | 0 | 0.0 | 0.0 | 0.00 | 0.00 | 0.00 | 77 | 1018.2 |
| 20260502113618 | 1 | 0 | 0.0 | 0.0 | 0.00 | 0.00 | 0.00 | 77 | 1018.2 |
| 20260502113505 | 1 | 0 | 0.0 | 0.0 | 0.00 | 0.00 | 0.00 | 77 | 1018.2 |
| 20260502113404 | 1 | 0 | 0.0 | 0.0 | 0.00 | 0.00 | 0.00 | 77 | 1018.1 |
| 20260502113318 | 1 | 0 | 0.0 | 0.0 | 0.00 | 0.00 | 0.00 | 77 | 1018.2 |
| 20260502113205 | 1 | 0 | 0.0 | 0.0 | 0.00 | 0.00 | 0.00 | 77 | 1018.2 |
| 20260502113104 | 1 | 0 | 0.0 | 0.0 | 0.00 | 0.00 | 0.00 | 77 | 1018.1 |
| 20260502113005 | 1 | 0 | 0.0 | 0.0 | 0.00 | 0.00 | 0.00 | 77 | 1018.2 |
| 20260502112904 | 1 | 0 | 0.0 | 0.0 | 0.00 | 0.00 | 0.00 | 77 | 1018.2 |
| 20260502112805 | 1 | 0 | 0.0 | 0.0 | 0.00 | 0.00 | 0.00 | 77 | 1018.1 |
| 20260502112704 | 1 | 0 | 0.0 | 0.0 | 0.00 | 0.00 | 0.00 | 77 | 1018.2 |
| 20260502112605 | 1 | 0 | 0.0 | 0.0 | 0.00 | 0.00 | 0.00 | 77 | 1018.2 |
| 20260502112519 | 1 | 0 | 0.0 | 0.0 | 0.00 | 0.00 | 0.00 | 77 | 1018.1 |
| 20260502112404 | 1 | 0 | 0.0 | 0.0 | 0.00 | 0.00 | 0.00 | 76 | 1018.1 |
| 20260502112306 | 1 | 0 | 0.0 | 0.0 | 0.00 | 0.00 | 0.00 | 76 | 1018.1 |
| 20260502112204 | 1 | 0 | 0.0 | 0.0 | 0.00 | 0.00 | 0.00 | 76 | 1018.1 |
| 20260502112104 | 1 | 0 | 0.0 | 0.0 | 0.00 | 0.00 | 0.00 | 76 | 1018.2 |
| 20260502112005 | 1 | 0 | 0.0 | 0.0 | 0.00 | 0.00 | 0.00 | 76 | 1018.1 |
| 20260502111918 | 1 | 0 | 0.0 | 0.0 | 0.00 | 0.00 | 0.00 | 76 | 1018.1 |
| 20260502111818 | 1 | 0 | 0.0 | 0.0 | 0.00 | 0.00 | 0.00 | 76 | 1018.1 |
| 20260502111706 | 1 | 0 | 0.0 | 0.0 | 0.00 | 0.00 | 0.00 | 75 | 1018.2 |
| 20260502111604 | 1 | 0 | 0.0 | 0.0 | 0.00 | 0.00 | 0.00 | 75 | 1018.1 |
| 20260502111504 | 1 | 0 | 0.0 | 0.0 | 0.00 | 0.00 | 0.00 | 75 | 1018.1 |
| 20260502111405 | 1 | 0 | 0.0 | 0.0 | 0.00 | 0.00 | 0.00 | 75 | 1018.1 |
| 20260502111304 | 1 | 0 | 0.0 | 0.0 | 0.00 | 0.00 | 0.00 | 75 | 1018.1 |
| 20260502111204 | 1 | 0 | 0.0 | 0.0 | 0.00 | 0.00 | 0.00 | 74 | 1018.1 |
| 20260502111104 | 1 | 0 | 0.0 | 0.0 | 0.00 | 0.00 | 0.00 | 74 | 1018.1 |
| 20260502111019 | 1 | 0 | 0.0 | 0.0 | 0.00 | 0.00 | 0.00 | 74 | 1018.1 |
| 20260502110905 | 1 | 0 | 0.0 | 0.0 | 0.00 | 0.00 | 0.00 | 74 | 1018.1 |
| 20260502110804 | 1 | 0 | 0.0 | 0.0 | 0.00 | 0.00 | 0.00 | 74 | 1018.1 |
| 20260502110705 | 1 | 0 | 0.0 | 0.0 | 0.00 | 0.00 | 0.00 | 74 | 1018.1 |
| 20260502110605 | 1 | 360 | 0.0 | 0.0 | 0.00 | 0.00 | 0.00 | 74 | 1018.1 |
| 20260502110505 | 1 | 360 | 0.0 | 1.6 | 0.00 | 0.00 | 0.00 | 74 | 1018.1 |
| 20260502110404 | 1 | 360 | 0.0 | 1.6 | 0.00 | 0.00 | 0.00 | 74 | 1018.1 |
| 20260502110305 | 1 | 360 | 0.0 | 1.6 | 0.00 | 0.00 | 0.00 | 73 | 1018.1 |
| 20260502110219 | 1 | 360 | 0.0 | 3.2 | 0.00 | 0.00 | 0.00 | 73 | 1018.1 |
| 20260502110104 | 1 | 360 | 1.6 | 3.2 | 0.00 | 0.00 | 0.00 | 73 | 1018.1 |
| 20260502110005 | 1 | 360 | 1.6 | 3.2 | 0.00 | 0.00 | 0.00 | 73 | 1018.1 |
| 20260502105904 | 1 | 360 | 1.6 | 3.2 | 0.00 | 0.00 | 0.00 | 73 | 1018.1 |
| 20260502105806 | 1 | 360 | 1.6 | 3.2 | 0.00 | 0.00 | 0.00 | 73 | 1018.1 |
| 20260502105705 | 2 | 360 | 1.6 | 3.2 | 0.00 | 0.00 | 0.00 | 73 | 1018.1 |
| 20260502105604 | 2 | 360 | 1.6 | 3.2 | 0.00 | 0.00 | 0.00 | 72 | 1018.1 |
| 20260502105505 | 2 | 360 | 0.0 | 3.2 | 0.00 | 0.00 | 0.00 | 72 | 1018.1 |
| 20260502105418 | 2 | 360 | 0.0 | 3.2 | 0.00 | 0.00 | 0.00 | 72 | 1018.1 |
| 20260502105306 | 2 | 360 | 0.0 | 3.2 | 0.00 | 0.00 | 0.00 | 72 | 1018.1 |
| 20260502105204 | 2 | 360 | 0.0 | 3.2 | 0.00 | 0.00 | 0.00 | 72 | 1018.1 |
| 20260502105104 | 2 | 360 | 0.0 | 1.6 | 0.00 | 0.00 | 0.00 | 72 | 1018.1 |
| 20260502105005 | 2 | 0 | 0.0 | 0.0 | 0.00 | 0.00 | 0.00 | 72 | 1018.2 |
| 20260502104904 | 2 | 0 | 0.0 | 0.0 | 0.00 | 0.00 | 0.00 | 72 | 1018.1 |
| 20260502104818 | 2 | 0 | 0.0 | 0.0 | 0.00 | 0.00 | 0.00 | 72 | 1018.2 |
| 20260502104705 | 2 | 0 | 0.0 | 0.0 | 0.00 | 0.00 | 0.00 | 72 | 1018.1 |
| 20260502104604 | 2 | 0 | 0.0 | 0.0 | 0.00 | 0.00 | 0.00 | 72 | 1018.1 |
| 20260502104504 | 2 | 0 | 0.0 | 0.0 | 0.00 | 0.00 | 0.00 | 72 | 1018.2 |
| 20260502104405 | 2 | 0 | 0.0 | 0.0 | 0.00 | 0.00 | 0.00 | 72 | 1018.2 |
| 20260502104304 | 2 | 0 | 0.0 | 0.0 | 0.00 | 0.00 | 0.00 | 72 | 1018.2 |
| 20260502104205 | 2 | 0 | 0.0 | 0.0 | 0.00 | 0.00 | 0.00 | 72 | 1018.2 |
| 20260502104119 | 2 | 0 | 0.0 | 0.0 | 0.00 | 0.00 | 0.00 | 72 | 1018.2 |
| 20260502104004 | 2 | 0 | 0.0 | 0.0 | 0.00 | 0.00 | 0.00 | 72 | 1018.2 |
| 20260502103904 | 2 | 0 | 0.0 | 1.6 | 0.00 | 0.00 | 0.00 | 72 | 1018.2 |
| 20260502103804 | 2 | 360 | 0.0 | 1.6 | 0.00 | 0.00 | 0.00 | 72 | 1018.2 |
| 20260502103704 | 2 | 360 | 0.0 | 1.6 | 0.00 | 0.00 | 0.00 | 72 | 1018.1 |
| 20260502103618 | 2 | 360 | 0.0 | 1.6 | 0.00 | 0.00 | 0.00 | 72 | 1018.1 |
| 20260502103504 | 2 | 360 | 0.0 | 1.6 | 0.00 | 0.00 | 0.00 | 72 | 1018.1 |
| 20260502103405 | 2 | 360 | 0.0 | 1.6 | 0.00 | 0.00 | 0.00 | 72 | 1018.1 |
| 20260502103304 | 2 | 360 | 0.0 | 3.2 | 0.00 | 0.00 | 0.00 | 72 | 1018.1 |
| 20260502103204 | 2 | 360 | 0.0 | 3.2 | 0.00 | 0.00 | 0.00 | 72 | 1018.1 |
| 20260502103105 | 2 | 360 | 0.0 | 3.2 | 0.00 | 0.00 | 0.00 | 72 | 1018.1 |
| 20260502103004 | 2 | 360 | 0.0 | 3.2 | 0.00 | 0.00 | 0.00 | 71 | 1018.1 |
| 20260502102904 | 2 | 360 | 0.0 | 3.2 | 0.00 | 0.00 | 0.00 | 71 | 1018.2 |
| 20260502102805 | 2 | 360 | 0.0 | 3.2 | 0.00 | 0.00 | 0.00 | 71 | 1018.1 |
| 20260502102704 | 2 | 360 | 0.0 | 3.2 | 0.00 | 0.00 | 0.00 | 71 | 1018.2 |
| 20260502102605 | 2 | 360 | 0.0 | 3.2 | 0.00 | 0.00 | 0.00 | 71 | 1018.1 |
| 20260502102519 | 2 | 360 | 0.0 | 3.2 | 0.00 | 0.00 | 0.00 | 71 | 1018.1 |
| 20260502102404 | 2 | 360 | 0.0 | 3.2 | 0.00 | 0.00 | 0.00 | 71 | 1018.2 |
| 20260502102306 | 2 | 360 | 0.0 | 3.2 | 0.00 | 0.00 | 0.00 | 71 | 1018.1 |
| 20260502102218 | 2 | 360 | 0.0 | 3.2 | 0.00 | 0.00 | 0.00 | 71 | 1018.1 |
| 20260502102104 | 2 | 360 | 0.0 | 3.2 | 0.00 | 0.00 | 0.00 | 71 | 1018.1 |
| 20260502102005 | 2 | 360 | 0.0 | 1.6 | 0.00 | 0.00 | 0.00 | 71 | 1018.2 |
| 20260502101919 | 2 | 0 | 0.0 | 0.0 | 0.00 | 0.00 | 0.00 | 71 | 1018.1 |
| 20260502101804 | 2 | 0 | 0.0 | 0.0 | 0.00 | 0.00 | 0.00 | 70 | 1018.1 |
| 20260502101605 | 2 | 0 | 0.0 | 0.0 | 0.00 | 0.00 | 0.00 | 70 | 1018.1 |
| 20260502101504 | 2 | 360 | 0.0 | 1.6 | 0.00 | 0.00 | 0.00 | 70 | 1018.1 |
| 20260502101404 | 2 | 360 | 0.0 | 1.6 | 0.00 | 0.00 | 0.00 | 70 | 1018.1 |
| 20260502101304 | 2 | 360 | 0.0 | 1.6 | 0.00 | 0.00 | 0.00 | 70 | 1018.1 |
| 20260502101204 | 2 | 360 | 0.0 | 1.6 | 0.00 | 0.00 | 0.00 | 70 | 1018.1 |
| 20260502101104 | 2 | 360 | 1.6 | 1.6 | 0.00 | 0.00 | 0.00 | 70 | 1018.1 |
| 20260502101004 | 2 | 360 | 1.6 | 1.6 | 0.00 | 0.00 | 0.00 | 70 | 1018.1 |
| 20260502100905 | 2 | 360 | 1.6 | 1.6 | 0.00 | 0.00 | 0.00 | 70 | 1018.1 |
| 20260502100805 | 2 | 360 | 1.6 | 1.6 | 0.00 | 0.00 | 0.00 | 70 | 1018.1 |
| 20260502100718 | 2 | 360 | 1.6 | 1.6 | 0.00 | 0.00 | 0.00 | 70 | 1018.1 |
| 20260502100605 | 2 | 360 | 1.6 | 1.6 | 0.00 | 0.00 | 0.00 | 70 | 1018.1 |
| 20260502100504 | 2 | 360 | 1.6 | 1.6 | 0.00 | 0.00 | 0.00 | 70 | 1018.1 |
| 20260502100404 | 2 | 360 | 1.6 | 1.6 | 0.00 | 0.00 | 0.00 | 70 | 1018.1 |
| 20260502100304 | 2 | 360 | 0.0 | 1.6 | 0.00 | 0.00 | 0.00 | 70 | 1018.1 |
| 20260502100205 | 2 | 360 | 0.0 | 1.6 | 0.00 | 0.00 | 0.00 | 70 | 1018.1 |
| 20260502100105 | 2 | 360 | 0.0 | 1.6 | 0.00 | 0.00 | 0.00 | 70 | 1018.1 |
| 20260502091505 | 2 | 0 | 0.0 | 3.2 | 0.00 | 0.00 | 0.00 | 70 | 1017.9 |
| 20260502091404 | 2 | 0 | 0.0 | 3.2 | 0.00 | 0.00 | 0.00 | 70 | 1017.9 |
| 20260502091305 | 2 | 0 | 0.0 | 3.2 | 0.00 | 0.00 | 0.00 | 70 | 1017.9 |
| 20260502091204 | 2 | 0 | 0.0 | 3.2 | 0.00 | 0.00 | 0.00 | 70 | 1017.9 |
| 20260502091105 | 2 | 0 | 0.0 | 3.2 | 0.00 | 0.00 | 0.00 | 70 | 1017.9 |
| 20260502091004 | 2 | 0 | 0.0 | 3.2 | 0.00 | 0.00 | 0.00 | 70 | 1017.9 |
| 20260502090904 | 2 | 0 | 0.0 | 3.2 | 0.00 | 0.00 | 0.00 | 70 | 1017.9 |
| 20260502090804 | 2 | 0 | 0.0 | 3.2 | 0.00 | 0.00 | 0.00 | 70 | 1017.9 |
| 20260502090704 | 2 | 0 | 0.0 | 3.2 | 0.00 | 0.00 | 0.00 | 70 | 1017.9 |
| 20260502090619 | 2 | 0 | 0.0 | 3.2 | 0.00 | 0.00 | 0.00 | 70 | 1017.9 |
| 20260502090504 | 2 | 0 | 0.0 | 3.2 | 0.00 | 0.00 | 0.00 | 70 | 1017.9 |
| 20260502090405 | 2 | 0 | 0.0 | 0.0 | 0.00 | 0.00 | 0.00 | 70 | 1017.9 |
| 20260502090304 | 2 | 0 | 0.0 | 0.0 | 0.00 | 0.00 | 0.00 | 70 | 1017.9 |
| 20260502090218 | 2 | 0 | 0.0 | 0.0 | 0.00 | 0.00 | 0.00 | 69 | 1017.9 |
| 20260502090105 | 2 | 0 | 0.0 | 0.0 | 0.00 | 0.00 | 0.00 | 69 | 1017.9 |
| 20260502080105 | 2 | 360 | 0.0 | 3.2 | 0.00 | 0.00 | 0.00 | 67 | 1018.0 |
| 20260502071504 | 3 | 0 | 0.0 | 1.6 | 0.00 | 0.00 | 0.00 | 64 | 1018.2 |
| 20260502071404 | 3 | 0 | 0.0 | 1.6 | 0.00 | 0.00 | 0.00 | 64 | 1018.2 |
| 20260502071318 | 3 | 0 | 0.0 | 0.0 | 0.00 | 0.00 | 0.00 | 64 | 1018.2 |
| 20260502071204 | 3 | 0 | 0.0 | 0.0 | 0.00 | 0.00 | 0.00 | 64 | 1018.3 |
| 20260502071104 | 3 | 0 | 0.0 | 0.0 | 0.00 | 0.00 | 0.00 | 64 | 1018.2 |
| 20260502071004 | 3 | 0 | 0.0 | 0.0 | 0.00 | 0.00 | 0.00 | 64 | 1018.2 |
| 20260502070904 | 3 | 0 | 0.0 | 0.0 | 0.00 | 0.00 | 0.00 | 63 | 1018.2 |
| 20260502070805 | 3 | 0 | 0.0 | 0.0 | 0.00 | 0.00 | 0.00 | 63 | 1018.3 |
| 20260502070704 | 3 | 0 | 0.0 | 0.0 | 0.00 | 0.00 | 0.00 | 63 | 1018.2 |
| 20260502070605 | 3 | 0 | 0.0 | 0.0 | 0.00 | 0.00 | 0.00 | 63 | 1018.3 |
| 20260502070505 | 3 | 0 | 0.0 | 0.0 | 0.00 | 0.00 | 0.00 | 63 | 1018.3 |
| 20260502070419 | 3 | 0 | 0.0 | 0.0 | 0.00 | 0.00 | 0.00 | 63 | 1018.3 |
| 20260502070305 | 3 | 0 | 0.0 | 0.0 | 0.00 | 0.00 | 0.00 | 63 | 1018.3 |
| 20260502070204 | 3 | 0 | 0.0 | 0.0 | 0.00 | 0.00 | 0.00 | 63 | 1018.3 |
| 20260502070104 | 3 | 0 | 0.0 | 0.0 | 0.00 | 0.00 | 0.00 | 63 | 1018.3 |
| 20260502070005 | 3 | 0 | 0.0 | 0.0 | 0.00 | 0.00 | 0.00 | 63 | 1018.3 |
| 20260502065904 | 3 | 0 | 0.0 | 0.0 | 0.00 | 0.00 | 0.00 | 63 | 1018.3 |
| 20260502065805 | 3 | 0 | 0.0 | 0.0 | 0.00 | 0.00 | 0.00 | 63 | 1018.3 |
| 20260502065705 | 3 | 0 | 0.0 | 0.0 | 0.00 | 0.00 | 0.00 | 63 | 1018.3 |
| 20260502065604 | 3 | 0 | 0.0 | 0.0 | 0.00 | 0.00 | 0.00 | 62 | 1018.3 |
| 20260502065505 | 3 | 0 | 0.0 | 0.0 | 0.00 | 0.00 | 0.00 | 62 | 1018.3 |
| 20260502065404 | 3 | 0 | 0.0 | 0.0 | 0.00 | 0.00 | 0.00 | 62 | 1018.3 |
| 20260502065306 | 3 | 0 | 0.0 | 0.0 | 0.00 | 0.00 | 0.00 | 62 | 1018.3 |
| 20260502065204 | 3 | 0 | 0.0 | 0.0 | 0.00 | 0.00 | 0.00 | 62 | 1018.3 |
| 20260502065104 | 3 | 0 | 0.0 | 0.0 | 0.00 | 0.00 | 0.00 | 62 | 1018.3 |
| 20260502065005 | 3 | 0 | 0.0 | 0.0 | 0.00 | 0.00 | 0.00 | 62 | 1018.3 |
| 20260502064905 | 3 | 0 | 0.0 | 0.0 | 0.00 | 0.00 | 0.00 | 62 | 1018.3 |
| 20260502064805 | 3 | 0 | 0.0 | 0.0 | 0.00 | 0.00 | 0.00 | 62 | 1018.3 |
| 20260502064705 | 3 | 0 | 0.0 | 0.0 | 0.00 | 0.00 | 0.00 | 63 | 1018.3 |
| 20260502064604 | 3 | 0 | 0.0 | 0.0 | 0.00 | 0.00 | 0.00 | 62 | 1018.4 |
| 20260502064504 | 3 | 0 | 0.0 | 0.0 | 0.00 | 0.00 | 0.00 | 62 | 1018.3 |
| 20260502064405 | 3 | 0 | 0.0 | 0.0 | 0.00 | 0.00 | 0.00 | 62 | 1018.4 |
| 20260502064305 | 3 | 0 | 0.0 | 0.0 | 0.00 | 0.00 | 0.00 | 62 | 1018.4 |
| 20260502064204 | 3 | 0 | 0.0 | 0.0 | 0.00 | 0.00 | 0.00 | 62 | 1018.3 |
| 20260502064104 | 3 | 0 | 0.0 | 0.0 | 0.00 | 0.00 | 0.00 | 62 | 1018.4 |
| 20260502064004 | 3 | 0 | 0.0 | 0.0 | 0.00 | 0.00 | 0.00 | 62 | 1018.3 |
| 20260502063904 | 3 | 0 | 0.0 | 0.0 | 0.00 | 0.00 | 0.00 | 62 | 1018.3 |
| 20260502063805 | 3 | 0 | 0.0 | 0.0 | 0.00 | 0.00 | 0.00 | 62 | 1018.4 |
| 20260502063705 | 3 | 0 | 0.0 | 0.0 | 0.00 | 0.00 | 0.00 | 62 | 1018.3 |
| 20260502063604 | 3 | 0 | 0.0 | 0.0 | 0.00 | 0.00 | 0.00 | 62 | 1018.4 |
| 20260502063505 | 3 | 0 | 0.0 | 0.0 | 0.00 | 0.00 | 0.00 | 62 | 1018.4 |
| 20260502063404 | 3 | 0 | 0.0 | 0.0 | 0.00 | 0.00 | 0.00 | 62 | 1018.4 |
| 20260502063304 | 3 | 0 | 0.0 | 0.0 | 0.00 | 0.00 | 0.00 | 62 | 1018.4 |
| 20260502063205 | 3 | 0 | 0.0 | 0.0 | 0.00 | 0.00 | 0.00 | 62 | 1018.4 |
| 20260502063104 | 3 | 0 | 0.0 | 0.0 | 0.00 | 0.00 | 0.00 | 62 | 1018.4 |
| 20260502063004 | 3 | 0 | 0.0 | 0.0 | 0.00 | 0.00 | 0.00 | 62 | 1018.4 |
| 20260502062904 | 3 | 0 | 0.0 | 0.0 | 0.00 | 0.00 | 0.00 | 62 | 1018.4 |
| 20260502062804 | 3 | 0 | 0.0 | 0.0 | 0.00 | 0.00 | 0.00 | 62 | 1018.4 |
| 20260502062704 | 3 | 0 | 0.0 | 0.0 | 0.00 | 0.00 | 0.00 | 62 | 1018.4 |
| 20260502062618 | 3 | 0 | 0.0 | 0.0 | 0.00 | 0.00 | 0.00 | 62 | 1018.4 |
| 20260502062504 | 3 | 0 | 0.0 | 0.0 | 0.00 | 0.00 | 0.00 | 62 | 1018.4 |
| 20260502062419 | 3 | 0 | 0.0 | 0.0 | 0.00 | 0.00 | 0.00 | 61 | 1018.4 |
| 20260502062306 | 3 | 0 | 0.0 | 0.0 | 0.00 | 0.00 | 0.00 | 61 | 1018.4 |
| 20260502062218 | 3 | 0 | 0.0 | 0.0 | 0.00 | 0.00 | 0.00 | 61 | 1018.4 |
| 20260502062104 | 3 | 0 | 0.0 | 0.0 | 0.00 | 0.00 | 0.00 | 61 | 1018.4 |
| 20260502062018 | 3 | 0 | 0.0 | 0.0 | 0.00 | 0.00 | 0.00 | 61 | 1018.4 |
| 20260502061905 | 3 | 0 | 0.0 | 0.0 | 0.00 | 0.00 | 0.00 | 61 | 1018.4 |
| 20260502061818 | 3 | 0 | 0.0 | 0.0 | 0.00 | 0.00 | 0.00 | 61 | 1018.4 |
| 20260502061704 | 3 | 0 | 0.0 | 0.0 | 0.00 | 0.00 | 0.00 | 61 | 1018.4 |
| 20260502061605 | 3 | 0 | 0.0 | 0.0 | 0.00 | 0.00 | 0.00 | 61 | 1018.4 |
| 20260502061504 | 3 | 0 | 0.0 | 0.0 | 0.00 | 0.00 | 0.00 | 61 | 1018.5 |
| 20260502061418 | 3 | 0 | 0.0 | 0.0 | 0.00 | 0.00 | 0.00 | 61 | 1018.4 |
| 20260502061305 | 3 | 0 | 0.0 | 0.0 | 0.00 | 0.00 | 0.00 | 61 | 1018.4 |
| 20260502061205 | 3 | 0 | 0.0 | 0.0 | 0.00 | 0.00 | 0.00 | 61 | 1018.5 |
| 20260502061119 | 3 | 0 | 0.0 | 0.0 | 0.00 | 0.00 | 0.00 | 61 | 1018.5 |
| 20260502061006 | 3 | 0 | 0.0 | 0.0 | 0.00 | 0.00 | 0.00 | 60 | 1018.4 |
| 20260502060904 | 3 | 0 | 0.0 | 0.0 | 0.00 | 0.00 | 0.00 | 60 | 1018.5 |
| 20260502060804 | 3 | 0 | 0.0 | 0.0 | 0.00 | 0.00 | 0.00 | 60 | 1018.4 |
| 20260502060704 | 3 | 0 | 0.0 | 0.0 | 0.00 | 0.00 | 0.00 | 61 | 1018.4 |
| 20260502060605 | 3 | 0 | 0.0 | 0.0 | 0.00 | 0.00 | 0.00 | 61 | 1018.4 |
| 20260502060518 | 3 | 0 | 0.0 | 0.0 | 0.00 | 0.00 | 0.00 | 61 | 1018.5 |
| 20260502060404 | 3 | 0 | 0.0 | 0.0 | 0.00 | 0.00 | 0.00 | 61 | 1018.5 |
| 20260502060305 | 3 | 0 | 0.0 | 0.0 | 0.00 | 0.00 | 0.00 | 61 | 1018.5 |
| 20260502060205 | 3 | 0 | 0.0 | 0.0 | 0.00 | 0.00 | 0.00 | 61 | 1018.4 |
| 20260502060104 | 3 | 0 | 0.0 | 0.0 | 0.00 | 0.00 | 0.00 | 61 | 1018.5 |
| 20260502060004 | 3 | 0 | 0.0 | 0.0 | 0.00 | 0.00 | 0.00 | 61 | 1018.5 |
| 20260502055904 | 3 | 0 | 0.0 | 0.0 | 0.00 | 0.00 | 0.00 | 61 | 1018.5 |
| 20260502055804 | 3 | 0 | 0.0 | 0.0 | 0.00 | 0.00 | 0.00 | 60 | 1018.5 |
| 20260502055704 | 3 | 0 | 0.0 | 0.0 | 0.00 | 0.00 | 0.00 | 60 | 1018.5 |
| 20260502055604 | 3 | 0 | 0.0 | 0.0 | 0.00 | 0.00 | 0.00 | 60 | 1018.5 |
| 20260502055504 | 3 | 0 | 0.0 | 0.0 | 0.00 | 0.00 | 0.00 | 60 | 1018.5 |
| 20260502055404 | 3 | 0 | 0.0 | 0.0 | 0.00 | 0.00 | 0.00 | 60 | 1018.5 |
| 20260502055318 | 3 | 0 | 0.0 | 0.0 | 0.00 | 0.00 | 0.00 | 60 | 1018.5 |
| 20260502055204 | 3 | 0 | 0.0 | 0.0 | 0.00 | 0.00 | 0.00 | 60 | 1018.5 |
| 20260502055104 | 3 | 0 | 0.0 | 0.0 | 0.00 | 0.00 | 0.00 | 60 | 1018.5 |
| 20260502055004 | 3 | 0 | 0.0 | 0.0 | 0.00 | 0.00 | 0.00 | 60 | 1018.5 |
| 20260502054904 | 3 | 0 | 0.0 | 0.0 | 0.00 | 0.00 | 0.00 | 59 | 1018.5 |
| 20260502054804 | 4 | 0 | 0.0 | 0.0 | 0.00 | 0.00 | 0.00 | 59 | 1018.5 |
| 20260502054704 | 3 | 0 | 0.0 | 0.0 | 0.00 | 0.00 | 0.00 | 59 | 1018.5 |
| 20260502054604 | 4 | 0 | 0.0 | 0.0 | 0.00 | 0.00 | 0.00 | 59 | 1018.5 |
| 20260502054504 | 4 | 0 | 0.0 | 0.0 | 0.00 | 0.00 | 0.00 | 59 | 1018.5 |
| 20260502054404 | 4 | 0 | 0.0 | 0.0 | 0.00 | 0.00 | 0.00 | 60 | 1018.5 |
| 20260502054305 | 4 | 0 | 0.0 | 0.0 | 0.00 | 0.00 | 0.00 | 60 | 1018.5 |
| 20260502054205 | 4 | 0 | 0.0 | 0.0 | 0.00 | 0.00 | 0.00 | 60 | 1018.5 |
| 20260502054118 | 4 | 0 | 0.0 | 0.0 | 0.00 | 0.00 | 0.00 | 60 | 1018.5 |
| 20260502054004 | 4 | 0 | 0.0 | 0.0 | 0.00 | 0.00 | 0.00 | 60 | 1018.5 |
| 20260502053906 | 4 | 0 | 0.0 | 0.0 | 0.00 | 0.00 | 0.00 | 59 | 1018.5 |
| 20260502053805 | 4 | 0 | 0.0 | 0.0 | 0.00 | 0.00 | 0.00 | 59 | 1018.5 |
| 20260502053704 | 4 | 0 | 0.0 | 0.0 | 0.00 | 0.00 | 0.00 | 59 | 1018.5 |
| 20260502053604 | 4 | 0 | 0.0 | 0.0 | 0.00 | 0.00 | 0.00 | 59 | 1018.5 |
| 20260502053518 | 4 | 0 | 0.0 | 0.0 | 0.00 | 0.00 | 0.00 | 59 | 1018.5 |
| 20260502053405 | 4 | 0 | 0.0 | 0.0 | 0.00 | 0.00 | 0.00 | 59 | 1018.5 |
| 20260502053305 | 4 | 0 | 0.0 | 0.0 | 0.00 | 0.00 | 0.00 | 59 | 1018.5 |
| 20260502053204 | 4 | 0 | 0.0 | 0.0 | 0.00 | 0.00 | 0.00 | 59 | 1018.6 |
| 20260502053118 | 4 | 0 | 0.0 | 0.0 | 0.00 | 0.00 | 0.00 | 59 | 1018.5 |
| 20260502053004 | 4 | 0 | 0.0 | 0.0 | 0.00 | 0.00 | 0.00 | 59 | 1018.5 |
| 20260502052904 | 4 | 0 | 0.0 | 0.0 | 0.00 | 0.00 | 0.00 | 59 | 1018.6 |
| 20260502052804 | 4 | 0 | 0.0 | 0.0 | 0.00 | 0.00 | 0.00 | 59 | 1018.5 |
| 20260502052704 | 4 | 0 | 0.0 | 0.0 | 0.00 | 0.00 | 0.00 | 59 | 1018.6 |
| 20260502052604 | 4 | 0 | 0.0 | 0.0 | 0.00 | 0.00 | 0.00 | 59 | 1018.6 |
| 20260502052504 | 4 | 0 | 0.0 | 0.0 | 0.00 | 0.00 | 0.00 | 59 | 1018.5 |
| 20260502052405 | 4 | 0 | 0.0 | 0.0 | 0.00 | 0.00 | 0.00 | 59 | 1018.5 |
| 20260502052306 | 4 | 0 | 0.0 | 0.0 | 0.00 | 0.00 | 0.00 | 60 | 1018.5 |
| 20260502052204 | 4 | 0 | 0.0 | 0.0 | 0.00 | 0.00 | 0.00 | 60 | 1018.5 |
| 20260502052119 | 4 | 0 | 0.0 | 0.0 | 0.00 | 0.00 | 0.00 | 60 | 1018.6 |
| 20260502052005 | 4 | 0 | 0.0 | 0.0 | 0.00 | 0.00 | 0.00 | 60 | 1018.6 |
| 20260502051918 | 4 | 0 | 0.0 | 0.0 | 0.00 | 0.00 | 0.00 | 60 | 1018.6 |
| 20260502051804 | 3 | 0 | 0.0 | 0.0 | 0.00 | 0.00 | 0.00 | 60 | 1018.6 |
| 20260502051704 | 4 | 0 | 0.0 | 0.0 | 0.00 | 0.00 | 0.00 | 60 | 1018.6 |
| 20260502051604 | 4 | 0 | 0.0 | 0.0 | 0.00 | 0.00 | 0.00 | 60 | 1018.5 |
| 20260502051504 | 4 | 0 | 0.0 | 0.0 | 0.00 | 0.00 | 0.00 | 60 | 1018.6 |
| 20260502051404 | 4 | 0 | 0.0 | 0.0 | 0.00 | 0.00 | 0.00 | 59 | 1018.5 |
| 20260502051305 | 4 | 0 | 0.0 | 0.0 | 0.00 | 0.00 | 0.00 | 59 | 1018.5 |
| 20260502051204 | 4 | 0 | 0.0 | 0.0 | 0.00 | 0.00 | 0.00 | 58 | 1018.5 |
| 20260502051104 | 4 | 0 | 0.0 | 0.0 | 0.00 | 0.00 | 0.00 | 58 | 1018.5 |
| 20260502051018 | 4 | 0 | 0.0 | 0.0 | 0.00 | 0.00 | 0.00 | 58 | 1018.5 |
| 20260502050904 | 4 | 0 | 0.0 | 0.0 | 0.00 | 0.00 | 0.00 | 58 | 1018.5 |
| 20260502050804 | 4 | 0 | 0.0 | 0.0 | 0.00 | 0.00 | 0.00 | 59 | 1018.5 |
| 20260502050704 | 4 | 0 | 0.0 | 0.0 | 0.00 | 0.00 | 0.00 | 59 | 1018.5 |
| 20260502050604 | 4 | 0 | 0.0 | 0.0 | 0.00 | 0.00 | 0.00 | 58 | 1018.5 |
| 20260502050504 | 4 | 0 | 0.0 | 0.0 | 0.00 | 0.00 | 0.00 | 58 | 1018.5 |
| 20260502050404 | 4 | 0 | 0.0 | 0.0 | 0.00 | 0.00 | 0.00 | 58 | 1018.5 |
| 20260502050304 | 4 | 0 | 0.0 | 0.0 | 0.00 | 0.00 | 0.00 | 58 | 1018.4 |
| 20260502050205 | 4 | 0 | 0.0 | 0.0 | 0.00 | 0.00 | 0.00 | 59 | 1018.4 |
| 20260502050104 | 4 | 0 | 0.0 | 0.0 | 0.00 | 0.00 | 0.00 | 59 | 1018.4 |
| 20260502050008 | 4 | 0 | 0.0 | 0.0 | 0.00 | 0.00 | 0.00 | 58 | 1018.4 |
| 20260502045905 | 4 | 0 | 0.0 | 0.0 | 0.00 | 0.00 | 0.00 | 58 | 1018.5 |
| 20260502045805 | 4 | 0 | 0.0 | 0.0 | 0.00 | 0.00 | 0.00 | 58 | 1018.5 |
| 20260502045705 | 4 | 0 | 0.0 | 0.0 | 0.00 | 0.00 | 0.00 | 58 | 1018.5 |
| 20260502045605 | 4 | 0 | 0.0 | 0.0 | 0.00 | 0.00 | 0.00 | 58 | 1018.4 |
| 20260502045505 | 4 | 0 | 0.0 | 0.0 | 0.00 | 0.00 | 0.00 | 58 | 1018.4 |
| 20260502045405 | 4 | 0 | 0.0 | 0.0 | 0.00 | 0.00 | 0.00 | 58 | 1018.4 |
| 20260502045306 | 4 | 0 | 0.0 | 0.0 | 0.00 | 0.00 | 0.00 | 58 | 1018.4 |
| 20260502045204 | 4 | 0 | 0.0 | 0.0 | 0.00 | 0.00 | 0.00 | 57 | 1018.4 |
| 20260502045104 | 4 | 0 | 0.0 | 0.0 | 0.00 | 0.00 | 0.00 | 57 | 1018.5 |
| 20260502045004 | 4 | 0 | 0.0 | 0.0 | 0.00 | 0.00 | 0.00 | 57 | 1018.4 |
| 20260502044904 | 4 | 0 | 0.0 | 0.0 | 0.00 | 0.00 | 0.00 | 57 | 1018.4 |
| 20260502044819 | 4 | 0 | 0.0 | 0.0 | 0.00 | 0.00 | 0.00 | 57 | 1018.4 |
| 20260502044705 | 4 | 0 | 0.0 | 0.0 | 0.00 | 0.00 | 0.00 | 57 | 1018.4 |
| 20260502044604 | 5 | 0 | 0.0 | 0.0 | 0.00 | 0.00 | 0.00 | 57 | 1018.4 |
| 20260502044508 | 5 | 0 | 0.0 | 0.0 | 0.00 | 0.00 | 0.00 | 56 | 1018.5 |
| 20260502044405 | 5 | 0 | 0.0 | 0.0 | 0.00 | 0.00 | 0.00 | 56 | 1018.4 |
| 20260502044305 | 5 | 0 | 0.0 | 0.0 | 0.00 | 0.00 | 0.00 | 56 | 1018.4 |
| 20260502044205 | 5 | 0 | 0.0 | 0.0 | 0.00 | 0.00 | 0.00 | 56 | 1018.4 |
| 20260502044104 | 5 | 0 | 0.0 | 0.0 | 0.00 | 0.00 | 0.00 | 56 | 1018.4 |
| 20260502044004 | 5 | 0 | 0.0 | 0.0 | 0.00 | 0.00 | 0.00 | 56 | 1018.4 |
| 20260502043904 | 5 | 0 | 0.0 | 0.0 | 0.00 | 0.00 | 0.00 | 56 | 1018.4 |
| 20260502043818 | 5 | 0 | 0.0 | 0.0 | 0.00 | 0.00 | 0.00 | 57 | 1018.4 |
| 20260502043704 | 5 | 0 | 0.0 | 0.0 | 0.00 | 0.00 | 0.00 | 57 | 1018.4 |
| 20260502043604 | 5 | 0 | 0.0 | 0.0 | 0.00 | 0.00 | 0.00 | 57 | 1018.4 |
| 20260502043505 | 5 | 0 | 0.0 | 0.0 | 0.00 | 0.00 | 0.00 | 57 | 1018.4 |
| 20260502043404 | 5 | 0 | 0.0 | 0.0 | 0.00 | 0.00 | 0.00 | 57 | 1018.4 |
| 20260502043304 | 5 | 0 | 0.0 | 0.0 | 0.00 | 0.00 | 0.00 | 57 | 1018.4 |
| 20260502043204 | 5 | 0 | 0.0 | 0.0 | 0.00 | 0.00 | 0.00 | 57 | 1018.4 |
| 20260502043105 | 5 | 0 | 0.0 | 0.0 | 0.00 | 0.00 | 0.00 | 57 | 1018.4 |
| 20260502043004 | 5 | 0 | 0.0 | 0.0 | 0.00 | 0.00 | 0.00 | 58 | 1018.4 |
| 20260502042904 | 5 | 0 | 0.0 | 0.0 | 0.00 | 0.00 | 0.00 | 58 | 1018.4 |
| 20260502042804 | 5 | 0 | 0.0 | 0.0 | 0.00 | 0.00 | 0.00 | 58 | 1018.4 |
| 20260502042719 | 5 | 0 | 0.0 | 0.0 | 0.00 | 0.00 | 0.00 | 58 | 1018.5 |
| 20260502042618 | 5 | 0 | 0.0 | 0.0 | 0.00 | 0.00 | 0.00 | 57 | 1018.4 |
| 20260502042504 | 5 | 0 | 0.0 | 0.0 | 0.00 | 0.00 | 0.00 | 57 | 1018.4 |
| 20260502042404 | 5 | 0 | 0.0 | 0.0 | 0.00 | 0.00 | 0.00 | 57 | 1018.5 |
| 20260502042318 | 5 | 0 | 0.0 | 0.0 | 0.00 | 0.00 | 0.00 | 57 | 1018.4 |
| 20260502042205 | 5 | 0 | 0.0 | 3.2 | 0.00 | 0.00 | 0.00 | 57 | 1018.4 |
| 20260502042118 | 5 | 0 | 0.0 | 3.2 | 0.00 | 0.00 | 0.00 | 57 | 1018.4 |
| 20260502042018 | 5 | 360 | 0.0 | 3.2 | 0.00 | 0.00 | 0.00 | 57 | 1018.4 |
| 20260502041904 | 5 | 360 | 0.0 | 3.2 | 0.00 | 0.00 | 0.00 | 57 | 1018.4 |
| 20260502041804 | 5 | 360 | 0.0 | 3.2 | 0.00 | 0.00 | 0.00 | 56 | 1018.4 |
| 20260502041704 | 5 | 360 | 0.0 | 3.2 | 0.00 | 0.00 | 0.00 | 57 | 1018.4 |
| 20260502041604 | 5 | 360 | 0.0 | 3.2 | 0.00 | 0.00 | 0.00 | 57 | 1018.4 |
| 20260502041504 | 5 | 360 | 0.0 | 3.2 | 0.00 | 0.00 | 0.00 | 56 | 1018.4 |
| 20260502041419 | 5 | 360 | 0.0 | 3.2 | 0.00 | 0.00 | 0.00 | 56 | 1018.4 |
| 20260502041304 | 5 | 360 | 0.0 | 3.2 | 0.00 | 0.00 | 0.00 | 56 | 1018.4 |
| 20260502041204 | 5 | 360 | 0.0 | 3.2 | 0.00 | 0.00 | 0.00 | 56 | 1018.4 |
| 20260502041104 | 5 | 360 | 0.0 | 3.2 | 0.00 | 0.00 | 0.00 | 56 | 1018.4 |
| 20260502041005 | 5 | 360 | 0.0 | 3.2 | 0.00 | 0.00 | 0.00 | 55 | 1018.4 |
| 20260502040904 | 5 | 360 | 0.0 | 3.2 | 0.00 | 0.00 | 0.00 | 55 | 1018.4 |
| 20260502040804 | 5 | 360 | 0.0 | 3.2 | 0.00 | 0.00 | 0.00 | 55 | 1018.4 |
| 20260502040704 | 5 | 360 | 0.0 | 3.2 | 0.00 | 0.00 | 0.00 | 55 | 1018.4 |
| 20260502040604 | 5 | 360 | 0.0 | 3.2 | 0.00 | 0.00 | 0.00 | 55 | 1018.4 |
| 20260502040504 | 5 | 360 | 0.0 | 3.2 | 0.00 | 0.00 | 0.00 | 55 | 1018.4 |
| 20260502040404 | 5 | 360 | 0.0 | 3.2 | 0.00 | 0.00 | 0.00 | 55 | 1018.4 |
| 20260502040304 | 5 | 360 | 0.0 | 3.2 | 0.00 | 0.00 | 0.00 | 55 | 1018.4 |
| 20260502040204 | 5 | 360 | 0.0 | 3.2 | 0.00 | 0.00 | 0.00 | 55 | 1018.4 |
| 20260502040105 | 5 | 360 | 0.0 | 3.2 | 0.00 | 0.00 | 0.00 | 54 | 1018.4 |
| 20260502040005 | 5 | 0 | 0.0 | 1.6 | 0.00 | 0.00 | 0.00 | 54 | 1018.4 |
| 20260502035904 | 5 | 0 | 0.0 | 1.6 | 0.00 | 0.00 | 0.00 | 54 | 1018.4 |
| 20260502035804 | 5 | 0 | 0.0 | 1.6 | 0.00 | 0.00 | 0.00 | 55 | 1018.5 |
| 20260502035719 | 5 | 0 | 0.0 | 1.6 | 0.00 | 0.00 | 0.00 | 55 | 1018.4 |
| 20260502035618 | 5 | 0 | 0.0 | 1.6 | 0.00 | 0.00 | 0.00 | 55 | 1018.5 |
| 20260502035505 | 5 | 0 | 0.0 | 1.6 | 0.00 | 0.00 | 0.00 | 55 | 1018.4 |
| 20260502035405 | 5 | 0 | 0.0 | 1.6 | 0.00 | 0.00 | 0.00 | 54 | 1018.4 |
| 20260502035306 | 5 | 0 | 0.0 | 0.0 | 0.00 | 0.00 | 0.00 | 53 | 1018.4 |
| 20260502035205 | 5 | 0 | 0.0 | 0.0 | 0.00 | 0.00 | 0.00 | 53 | 1018.4 |
| 20260502035104 | 5 | 0 | 0.0 | 0.0 | 0.00 | 0.00 | 0.00 | 53 | 1018.4 |
| 20260502035004 | 5 | 0 | 0.0 | 0.0 | 0.00 | 0.00 | 0.00 | 53 | 1018.5 |
| 20260502034904 | 5 | 0 | 0.0 | 0.0 | 0.00 | 0.00 | 0.00 | 53 | 1018.4 |
| 20260502034804 | 5 | 0 | 0.0 | 0.0 | 0.00 | 0.00 | 0.00 | 53 | 1018.5 |
| 20260502034718 | 5 | 0 | 0.0 | 0.0 | 0.00 | 0.00 | 0.00 | 53 | 1018.5 |
| 20260502034605 | 5 | 0 | 0.0 | 0.0 | 0.00 | 0.00 | 0.00 | 54 | 1018.5 |
| 20260502034504 | 5 | 0 | 0.0 | 0.0 | 0.00 | 0.00 | 0.00 | 54 | 1018.4 |
| 20260502034404 | 5 | 0 | 0.0 | 0.0 | 0.00 | 0.00 | 0.00 | 53 | 1018.5 |
| 20260502034305 | 5 | 0 | 0.0 | 0.0 | 0.00 | 0.00 | 0.00 | 53 | 1018.4 |
| 20260502034204 | 5 | 0 | 0.0 | 0.0 | 0.00 | 0.00 | 0.00 | 53 | 1018.4 |
| 20260502034104 | 5 | 0 | 0.0 | 0.0 | 0.00 | 0.00 | 0.00 | 53 | 1018.4 |
| 20260502034004 | 5 | 0 | 0.0 | 0.0 | 0.00 | 0.00 | 0.00 | 53 | 1018.5 |
| 20260502033904 | 5 | 0 | 0.0 | 0.0 | 0.00 | 0.00 | 0.00 | 53 | 1018.5 |
| 20260502033804 | 5 | 0 | 0.0 | 0.0 | 0.00 | 0.00 | 0.00 | 53 | 1018.5 |
| 20260502033705 | 5 | 0 | 0.0 | 0.0 | 0.00 | 0.00 | 0.00 | 53 | 1018.5 |
| 20260502033604 | 5 | 0 | 0.0 | 0.0 | 0.00 | 0.00 | 0.00 | 53 | 1018.5 |
| 20260502033505 | 5 | 0 | 0.0 | 0.0 | 0.00 | 0.00 | 0.00 | 52 | 1018.5 |
| 20260502033404 | 6 | 0 | 0.0 | 0.0 | 0.00 | 0.00 | 0.00 | 52 | 1018.5 |
| 20260502033305 | 6 | 0 | 0.0 | 0.0 | 0.00 | 0.00 | 0.00 | 52 | 1018.5 |
| 20260502033204 | 6 | 0 | 0.0 | 0.0 | 0.00 | 0.00 | 0.00 | 52 | 1018.6 |
| 20260502033104 | 6 | 0 | 0.0 | 0.0 | 0.00 | 0.00 | 0.00 | 52 | 1018.5 |
| 20260502033004 | 6 | 0 | 0.0 | 0.0 | 0.00 | 0.00 | 0.00 | 52 | 1018.5 |
| 20260502032918 | 6 | 0 | 0.0 | 0.0 | 0.00 | 0.00 | 0.00 | 52 | 1018.5 |
| 20260502032805 | 6 | 0 | 0.0 | 0.0 | 0.00 | 0.00 | 0.00 | 51 | 1018.6 |
| 20260502032704 | 6 | 0 | 0.0 | 0.0 | 0.00 | 0.00 | 0.00 | 51 | 1018.5 |
| 20260502032604 | 6 | 0 | 0.0 | 0.0 | 0.00 | 0.00 | 0.00 | 50 | 1018.5 |
| 20260502032504 | 6 | 0 | 0.0 | 0.0 | 0.00 | 0.00 | 0.00 | 50 | 1018.5 |
| 20260502032404 | 6 | 0 | 0.0 | 0.0 | 0.00 | 0.00 | 0.00 | 50 | 1018.6 |
| 20260502032306 | 6 | 0 | 0.0 | 0.0 | 0.00 | 0.00 | 0.00 | 50 | 1018.5 |
| 20260502032218 | 6 | 0 | 0.0 | 0.0 | 0.00 | 0.00 | 0.00 | 50 | 1018.5 |
| 20260502032104 | 6 | 0 | 0.0 | 0.0 | 0.00 | 0.00 | 0.00 | 49 | 1018.5 |
| 20260502032005 | 6 | 0 | 0.0 | 0.0 | 0.00 | 0.00 | 0.00 | 49 | 1018.6 |
| 20260502031905 | 6 | 0 | 0.0 | 0.0 | 0.00 | 0.00 | 0.00 | 48 | 1018.5 |
| 20260502031804 | 6 | 0 | 0.0 | 0.0 | 0.00 | 0.00 | 0.00 | 48 | 1018.5 |
| 20260502031718 | 6 | 0 | 0.0 | 0.0 | 0.00 | 0.00 | 0.00 | 48 | 1018.5 |
| 20260502031604 | 6 | 0 | 0.0 | 0.0 | 0.00 | 0.00 | 0.00 | 48 | 1018.5 |
| 20260502031504 | 6 | 0 | 0.0 | 0.0 | 0.00 | 0.00 | 0.00 | 48 | 1018.5 |
| 20260502031404 | 6 | 0 | 0.0 | 0.0 | 0.00 | 0.00 | 0.00 | 48 | 1018.5 |
| 20260502031304 | 6 | 0 | 0.0 | 0.0 | 0.00 | 0.00 | 0.00 | 48 | 1018.5 |
| 20260502031204 | 6 | 0 | 0.0 | 0.0 | 0.00 | 0.00 | 0.00 | 48 | 1018.5 |
| 20260502031105 | 6 | 0 | 0.0 | 1.6 | 0.00 | 0.00 | 0.00 | 48 | 1018.4 |
| 20260502031004 | 6 | 360 | 0.0 | 3.2 | 0.00 | 0.00 | 0.00 | 48 | 1018.5 |
| 20260502030904 | 6 | 360 | 0.0 | 3.2 | 0.00 | 0.00 | 0.00 | 49 | 1018.5 |
| 20260502030805 | 6 | 360 | 0.0 | 3.2 | 0.00 | 0.00 | 0.00 | 49 | 1018.5 |
| 20260502030718 | 6 | 360 | 0.0 | 3.2 | 0.00 | 0.00 | 0.00 | 49 | 1018.5 |
| 20260502030604 | 6 | 360 | 0.0 | 3.2 | 0.00 | 0.00 | 0.00 | 49 | 1018.4 |
| 20260502030505 | 6 | 360 | 0.0 | 3.2 | 0.00 | 0.00 | 0.00 | 49 | 1018.4 |
| 20260502030404 | 6 | 360 | 0.0 | 3.2 | 0.00 | 0.00 | 0.00 | 49 | 1018.5 |
| 20260502030304 | 6 | 360 | 0.0 | 3.2 | 0.00 | 0.00 | 0.00 | 49 | 1018.4 |
| 20260502030205 | 6 | 360 | 0.0 | 3.2 | 0.00 | 0.00 | 0.00 | 48 | 1018.5 |
| 20260502030105 | 6 | 360 | 0.0 | 3.2 | 0.00 | 0.00 | 0.00 | 48 | 1018.4 |
| 20260502030005 | 6 | 360 | 0.0 | 3.2 | 0.00 | 0.00 | 0.00 | 48 | 1018.4 |
| 20260502025904 | 6 | 0 | 0.0 | 3.2 | 0.00 | 0.00 | 0.00 | 48 | 1018.4 |
| 20260502025804 | 6 | 0 | 0.0 | 3.2 | 0.00 | 0.00 | 0.00 | 48 | 1018.4 |
| 20260502025704 | 6 | 0 | 0.0 | 0.0 | 0.00 | 0.00 | 0.00 | 48 | 1018.4 |
| 20260502025604 | 6 | 0 | 0.0 | 0.0 | 0.00 | 0.00 | 0.00 | 48 | 1018.4 |
| 20260502025504 | 6 | 0 | 0.0 | 0.0 | 0.00 | 0.00 | 0.00 | 48 | 1018.4 |
| 20260502025419 | 6 | 0 | 0.0 | 0.0 | 0.00 | 0.00 | 0.00 | 48 | 1018.5 |
| 20260502025306 | 6 | 0 | 0.0 | 0.0 | 0.00 | 0.00 | 0.00 | 48 | 1018.5 |
| 20260502025205 | 6 | 0 | 0.0 | 0.0 | 0.00 | 0.00 | 0.00 | 48 | 1018.4 |
| 20260502025105 | 6 | 0 | 0.0 | 0.0 | 0.00 | 0.00 | 0.00 | 48 | 1018.5 |
| 20260502025004 | 6 | 0 | 0.0 | 0.0 | 0.00 | 0.00 | 0.00 | 48 | 1018.5 |
| 20260502024904 | 6 | 0 | 0.0 | 3.2 | 0.00 | 0.00 | 0.00 | 48 | 1018.4 |
| 20260502024804 | 6 | 0 | 0.0 | 3.2 | 0.00 | 0.00 | 0.00 | 48 | 1018.5 |
| 20260502024704 | 6 | 0 | 0.0 | 3.2 | 0.00 | 0.00 | 0.00 | 48 | 1018.5 |
| 20260502024605 | 6 | 0 | 0.0 | 3.2 | 0.00 | 0.00 | 0.00 | 48 | 1018.4 |
| 20260502024504 | 6 | 0 | 0.0 | 3.2 | 0.00 | 0.00 | 0.00 | 48 | 1018.4 |
| 20260502024405 | 6 | 0 | 0.0 | 3.2 | 0.00 | 0.00 | 0.00 | 48 | 1018.5 |
| 20260502024319 | 6 | 0 | 0.0 | 3.2 | 0.00 | 0.00 | 0.00 | 48 | 1018.5 |
| 20260502024204 | 6 | 0 | 0.0 | 3.2 | 0.00 | 0.00 | 0.00 | 48 | 1018.4 |
| 20260502024104 | 6 | 0 | 0.0 | 3.2 | 0.00 | 0.00 | 0.00 | 48 | 1018.5 |
| 20260502024004 | 6 | 0 | 0.0 | 3.2 | 0.00 | 0.00 | 0.00 | 48 | 1018.4 |
| 20260502023918 | 7 | 0 | 0.0 | 3.2 | 0.00 | 0.00 | 0.00 | 47 | 1018.4 |
| 20260502023818 | 7 | 0 | 0.0 | 0.0 | 0.00 | 0.00 | 0.00 | 47 | 1018.4 |
| 20260502023718 | 7 | 0 | 0.0 | 0.0 | 0.00 | 0.00 | 0.00 | 47 | 1018.4 |
| 20260502023604 | 7 | 0 | 0.0 | 0.0 | 0.00 | 0.00 | 0.00 | 46 | 1018.4 |
| 20260502023504 | 7 | 0 | 0.0 | 0.0 | 0.00 | 0.00 | 0.00 | 47 | 1018.5 |
| 20260502023418 | 7 | 0 | 0.0 | 0.0 | 0.00 | 0.00 | 0.00 | 46 | 1018.4 |
| 20260502023318 | 7 | 0 | 0.0 | 0.0 | 0.00 | 0.00 | 0.00 | 46 | 1018.5 |
| 20260502023204 | 7 | 0 | 0.0 | 0.0 | 0.00 | 0.00 | 0.00 | 45 | 1018.5 |
| 20260502023104 | 7 | 0 | 0.0 | 0.0 | 0.00 | 0.00 | 0.00 | 45 | 1018.5 |
| 20260502023004 | 7 | 0 | 0.0 | 0.0 | 0.00 | 0.00 | 0.00 | 45 | 1018.5 |
| 20260502022904 | 7 | 0 | 0.0 | 0.0 | 0.00 | 0.00 | 0.00 | 45 | 1018.5 |
| 20260502022804 | 7 | 0 | 0.0 | 0.0 | 0.00 | 0.00 | 0.00 | 44 | 1018.4 |
| 20260502022704 | 7 | 0 | 0.0 | 0.0 | 0.00 | 0.00 | 0.00 | 44 | 1018.5 |
| 20260502022604 | 7 | 0 | 0.0 | 0.0 | 0.00 | 0.00 | 0.00 | 44 | 1018.4 |
| 20260502022504 | 7 | 0 | 0.0 | 3.2 | 0.00 | 0.00 | 0.00 | 44 | 1018.5 |
| 20260502022418 | 7 | 0 | 0.0 | 3.2 | 0.00 | 0.00 | 0.00 | 44 | 1018.4 |
| 20260502022306 | 7 | 0 | 0.0 | 3.2 | 0.00 | 0.00 | 0.00 | 44 | 1018.5 |
| 20260502022204 | 7 | 0 | 0.0 | 3.2 | 0.00 | 0.00 | 0.00 | 44 | 1018.5 |
| 20260502022104 | 7 | 0 | 0.0 | 3.2 | 0.00 | 0.00 | 0.00 | 44 | 1018.4 |
| 20260502022018 | 7 | 0 | 0.0 | 3.2 | 0.00 | 0.00 | 0.00 | 44 | 1018.4 |
| 20260502021904 | 7 | 0 | 0.0 | 3.2 | 0.00 | 0.00 | 0.00 | 44 | 1018.4 |
| 20260502021818 | 7 | 0 | 0.0 | 3.2 | 0.00 | 0.00 | 0.00 | 44 | 1018.5 |
| 20260502021704 | 7 | 360 | 0.0 | 3.2 | 0.00 | 0.00 | 0.00 | 44 | 1018.4 |
| 20260502021604 | 7 | 360 | 0.0 | 3.2 | 0.00 | 0.00 | 0.00 | 42 | 1018.4 |
| 20260502021505 | 7 | 360 | 0.0 | 3.2 | 0.00 | 0.00 | 0.00 | 42 | 1018.4 |
| 20260502021404 | 7 | 360 | 0.0 | 3.2 | 0.00 | 0.00 | 0.00 | 42 | 1018.4 |
| 20260502021304 | 7 | 360 | 0.0 | 3.2 | 0.00 | 0.00 | 0.00 | 42 | 1018.4 |
| 20260502021205 | 7 | 360 | 0.0 | 3.2 | 0.00 | 0.00 | 0.00 | 42 | 1018.4 |
| 20260502021104 | 7 | 360 | 0.0 | 3.2 | 0.00 | 0.00 | 0.00 | 42 | 1018.4 |
| 20260502021004 | 7 | 360 | 0.0 | 3.2 | 0.00 | 0.00 | 0.00 | 42 | 1018.4 |
| 20260502020919 | 7 | 360 | 0.0 | 3.2 | 0.00 | 0.00 | 0.00 | 42 | 1018.4 |
| 20260502020804 | 7 | 360 | 0.0 | 3.2 | 0.00 | 0.00 | 0.00 | 42 | 1018.4 |
| 20260502020704 | 7 | 360 | 0.0 | 3.2 | 0.00 | 0.00 | 0.00 | 42 | 1018.4 |
| 20260502020604 | 7 | 360 | 0.0 | 3.2 | 0.00 | 0.00 | 0.00 | 42 | 1018.4 |
| 20260502020504 | 7 | 360 | 0.0 | 3.2 | 0.00 | 0.00 | 0.00 | 43 | 1018.3 |
| 20260502020404 | 8 | 360 | 0.0 | 3.2 | 0.00 | 0.00 | 0.00 | 42 | 1018.3 |
| 20260502020304 | 8 | 360 | 0.0 | 1.6 | 0.00 | 0.00 | 0.00 | 42 | 1018.3 |
| 20260502020204 | 8 | 0 | 0.0 | 0.0 | 0.00 | 0.00 | 0.00 | 42 | 1018.3 |
| 20260502020118 | 8 | 0 | 0.0 | 0.0 | 0.00 | 0.00 | 0.00 | 42 | 1018.3 |
| 20260502020019 | 8 | 0 | 0.0 | 0.0 | 0.00 | 0.00 | 0.00 | 42 | 1018.3 |
| 20260502015904 | 8 | 0 | 0.0 | 0.0 | 0.00 | 0.00 | 0.00 | 42 | 1018.3 |
| 20260502015805 | 8 | 0 | 0.0 | 0.0 | 0.00 | 0.00 | 0.00 | 42 | 1018.2 |
| 20260502015704 | 8 | 0 | 0.0 | 0.0 | 0.00 | 0.00 | 0.00 | 42 | 1018.3 |
| 20260502015604 | 8 | 0 | 0.0 | 0.0 | 0.00 | 0.00 | 0.00 | 40 | 1018.1 |
| 20260502015504 | 8 | 0 | 0.0 | 0.0 | 0.00 | 0.00 | 0.00 | 40 | 1018.2 |
| 20260502015404 | 8 | 0 | 0.0 | 0.0 | 0.00 | 0.00 | 0.00 | 40 | 1018.1 |
| 20260502015305 | 8 | 0 | 0.0 | 1.6 | 0.00 | 0.00 | 0.00 | 40 | 1018.1 |
| 20260502015204 | 8 | 360 | 0.0 | 1.6 | 0.00 | 0.00 | 0.00 | 40 | 1018.1 |
| 20260502015104 | 8 | 360 | 0.0 | 1.6 | 0.00 | 0.00 | 0.00 | 40 | 1018.1 |
| 20260502015018 | 8 | 360 | 0.0 | 1.6 | 0.00 | 0.00 | 0.00 | 40 | 1018.0 |
| 20260502014904 | 8 | 360 | 0.0 | 3.2 | 0.00 | 0.00 | 0.00 | 39 | 1018.0 |
| 20260502014804 | 8 | 360 | 0.0 | 3.2 | 0.00 | 0.00 | 0.00 | 39 | 1018.1 |
| 20260502014704 | 8 | 360 | 0.0 | 3.2 | 0.00 | 0.00 | 0.00 | 39 | 1018.0 |
| 20260502014618 | 8 | 360 | 0.0 | 3.2 | 0.00 | 0.00 | 0.00 | 39 | 1018.0 |
| 20260502014504 | 8 | 360 | 0.0 | 3.2 | 0.00 | 0.00 | 0.00 | 40 | 1018.0 |
| 20260502014404 | 8 | 360 | 0.0 | 3.2 | 0.00 | 0.00 | 0.00 | 40 | 1018.0 |
| 20260502014304 | 8 | 360 | 0.0 | 3.2 | 0.00 | 0.00 | 0.00 | 39 | 1018.0 |
| 20260502014204 | 8 | 360 | 0.0 | 3.2 | 0.00 | 0.00 | 0.00 | 38 | 1018.0 |
| 20260502014104 | 8 | 360 | 0.0 | 3.2 | 0.00 | 0.00 | 0.00 | 38 | 1017.9 |
| 20260502014004 | 8 | 360 | 0.0 | 3.2 | 0.00 | 0.00 | 0.00 | 38 | 1017.9 |
| 20260502013904 | 8 | 360 | 0.0 | 3.2 | 0.00 | 0.00 | 0.00 | 37 | 1017.9 |
| 20260502013804 | 8 | 360 | 0.0 | 1.6 | 0.00 | 0.00 | 0.00 | 37 | 1017.9 |
| 20260502013704 | 9 | 360 | 0.0 | 1.6 | 0.00 | 0.00 | 0.00 | 37 | 1017.9 |
| 20260502013605 | 9 | 360 | 0.0 | 1.6 | 0.00 | 0.00 | 0.00 | 36 | 1017.9 |
| 20260502013505 | 9 | 360 | 0.0 | 1.6 | 0.00 | 0.00 | 0.00 | 36 | 1017.9 |
| 20260502013404 | 9 | 0 | 0.0 | 0.0 | 0.00 | 0.00 | 0.00 | 36 | 1017.9 |
| 20260502013318 | 9 | 0 | 0.0 | 0.0 | 0.00 | 0.00 | 0.00 | 36 | 1018.0 |
| 20260502013204 | 9 | 0 | 0.0 | 0.0 | 0.00 | 0.00 | 0.00 | 35 | 1017.9 |
| 20260502013104 | 9 | 0 | 0.0 | 0.0 | 0.00 | 0.00 | 0.00 | 35 | 1017.9 |
| 20260502013004 | 9 | 0 | 0.0 | 0.0 | 0.00 | 0.00 | 0.00 | 35 | 1017.9 |
| 20260502012904 | 9 | 0 | 0.0 | 0.0 | 0.00 | 0.00 | 0.00 | 36 | 1017.9 |
| 20260502012804 | 9 | 0 | 0.0 | 3.2 | 0.00 | 0.00 | 0.00 | 35 | 1017.9 |
| 20260502012705 | 9 | 360 | 0.0 | 3.2 | 0.00 | 0.00 | 0.00 | 35 | 1017.9 |
| 20260502012605 | 9 | 360 | 0.0 | 3.2 | 0.00 | 0.00 | 0.00 | 35 | 1017.9 |
| 20260502012505 | 9 | 360 | 0.0 | 3.2 | 0.00 | 0.00 | 0.00 | 34 | 1017.9 |
| 20260502012404 | 9 | 360 | 0.0 | 3.2 | 0.00 | 0.00 | 0.00 | 34 | 1017.9 |
| 20260502012306 | 9 | 360 | 0.0 | 3.2 | 0.00 | 0.00 | 0.00 | 34 | 1017.9 |
| 20260502012204 | 10 | 360 | 0.0 | 3.2 | 0.00 | 0.00 | 0.00 | 34 | 1017.9 |
| 20260502012104 | 10 | 360 | 0.0 | 3.2 | 0.00 | 0.00 | 0.00 | 35 | 1017.9 |
| 20260502012004 | 10 | 360 | 0.0 | 3.2 | 0.00 | 0.00 | 0.00 | 35 | 1017.9 |
| 20260502011904 | 10 | 360 | 0.0 | 3.2 | 0.00 | 0.00 | 0.00 | 35 | 1017.9 |
| 20260502011805 | 10 | 360 | 0.0 | 3.2 | 0.00 | 0.00 | 0.00 | 33 | 1017.9 |
| 20260502011718 | 10 | 0 | 0.0 | 3.2 | 0.00 | 0.00 | 0.00 | 34 | 1017.9 |
| 20260502011604 | 10 | 0 | 0.0 | 0.0 | 0.00 | 0.00 | 0.00 | 34 | 1017.8 |
| 20260502011518 | 10 | 0 | 0.0 | 1.6 | 0.00 | 0.00 | 0.00 | 34 | 1017.9 |
| 20260502011405 | 10 | 360 | 0.0 | 1.6 | 0.00 | 0.00 | 0.00 | 34 | 1017.9 |
| 20260502011304 | 10 | 360 | 0.0 | 1.6 | 0.00 | 0.00 | 0.00 | 34 | 1017.9 |
| 20260502011204 | 10 | 360 | 0.0 | 1.6 | 0.00 | 0.00 | 0.00 | 34 | 1017.9 |
| 20260502011104 | 10 | 360 | 0.0 | 1.6 | 0.00 | 0.00 | 0.00 | 34 | 1017.9 |
| 20260502011004 | 10 | 360 | 0.0 | 1.6 | 0.00 | 0.00 | 0.00 | 34 | 1017.9 |
| 20260502010918 | 10 | 360 | 1.6 | 6.4 | 0.00 | 0.00 | 0.00 | 34 | 1017.9 |
| 20260502010804 | 10 | 360 | 1.6 | 6.4 | 0.00 | 0.00 | 0.00 | 34 | 1017.9 |
| 20260502010704 | 10 | 360 | 1.6 | 6.4 | 0.00 | 0.00 | 0.00 | 34 | 1018.0 |
| 20260502010604 | 10 | 360 | 1.6 | 6.4 | 0.00 | 0.00 | 0.00 | 34 | 1017.9 |